GFSWCAN_prec_precacc24_045.txt.gz
Total_Precipitation_Accumulation
0.29 0.26 0.24 0.21 0.26 0.32 0.37 0.42 0.35 0.37 0.37 0.35 0.35 0.32 0.29 0.29 0.46 0.41 0.66 0.52 0.86 0.66 0.23 0.17 0.18 0.16 0.05 0.03 0.06 0.03 0.10 0.10 0.10 0.09 0.02 0.00 0.01 0.00 0.01 0.00 0.01 0.00 0.01 0.01 0.01 0.01 0.00 0.00 0.00 0.00 0.00 0.00 0.00 0.00
0.25 0.24 0.24 0.24 0.26 0.30 0.36 0.38 0.34 0.35 0.34 0.31 0.31 0.27 0.24 0.27 0.46 0.40 0.62 0.50 0.62 0.95 0.55 0.17 0.13 0.10 0.07 0.01 0.01 0.02 0.03 0.02 0.01 0.04 0.02 0.04 0.02 0.01 0.00 0.00 0.00 0.01 0.01 0.02 0.00 0.00 0.00 0.00 0.00 0.00 0.00 0.00 0.00 0.00
0.30 0.26 0.26 0.25 0.28 0.37 0.41 0.37 0.30 0.30 0.29 0.29 0.28 0.25 0.24 0.33 0.44 0.36 0.54 0.65 0.80 1.25 0.60 0.22 0.14 0.08 0.13 0.03 0.03 0.08 0.02 0.01 0.02 0.05 0.05 0.04 0.03 0.01 0.00 0.00 0.00 0.00 0.01 0.01 0.00 0.00 0.00 0.00 0.00 0.00 0.00 0.00 0.00 0.00
0.25 0.24 0.26 0.34 0.38 0.38 0.37 0.31 0.28 0.30 0.27 0.30 0.25 0.27 0.29 0.47 0.38 0.36 0.51 1.00 1.24 1.19 0.92 0.32 0.24 0.18 0.13 0.12 0.04 0.05 0.04 0.01 0.04 0.05 0.09 0.05 0.02 0.02 0.01 0.01 0.00 0.00 0.00 0.00 0.00 0.00 0.00 0.00 0.00 0.00 0.00 0.00 0.00 0.00
0.22 0.27 0.30 0.31 0.32 0.31 0.28 0.30 0.29 0.29 0.31 0.30 0.28 0.32 0.51 0.47 0.29 0.45 0.57 1.15 1.40 1.44 1.14 0.61 0.21 0.22 0.18 0.14 0.06 0.03 0.04 0.03 0.03 0.11 0.09 0.04 0.02 0.03 0.03 0.02 0.00 0.00 0.00 0.00 0.00 0.00 0.00 0.00 0.00 0.00 0.00 0.00 0.00 0.00
0.26 0.28 0.27 0.27 0.27 0.22 0.20 0.24 0.24 0.24 0.25 0.26 0.35 0.48 0.40 0.26 0.31 0.85 1.15 0.93 0.91 1.10 1.25 1.00 0.30 0.16 0.20 0.23 0.26 0.10 0.07 0.05 0.09 0.09 0.09 0.03 0.01 0.02 0.01 0.00 0.00 0.01 0.02 0.02 0.01 0.01 0.00 0.00 0.00 0.00 0.00 0.00 0.00 0.00
0.43 0.38 0.28 0.21 0.17 0.13 0.14 0.17 0.19 0.19 0.23 0.34 0.36 0.28 0.21 0.29 0.43 1.03 0.98 0.81 0.46 0.79 1.03 0.92 0.71 0.25 0.24 0.39 0.73 0.44 0.28 0.17 0.19 0.14 0.08 0.04 0.02 0.01 0.00 0.00 0.00 0.00 0.00 0.01 0.00 0.00 0.00 0.00 0.00 0.00 0.00 0.00 0.00 0.00
0.37 0.31 0.26 0.20 0.16 0.16 0.14 0.15 0.13 0.16 0.23 0.24 0.19 0.21 0.23 0.43 0.62 0.97 0.68 0.62 0.45 0.48 0.69 0.83 0.94 0.63 0.31 0.44 0.66 0.71 0.42 0.39 0.31 0.17 0.06 0.04 0.06 0.03 0.01 0.00 0.00 0.00 0.00 0.00 0.00 0.00 0.00 0.00 0.00 0.00 0.00 0.00 0.00 0.00
0.25 0.21 0.20 0.20 0.19 0.18 0.16 0.13 0.15 0.19 0.19 0.24 0.36 0.43 0.63 0.95 1.07 0.95 0.68 0.70 0.61 0.51 0.57 0.37 0.75 0.81 0.58 0.46 0.61 0.59 0.59 0.48 0.29 0.20 0.09 0.09 0.05 0.04 0.00 0.00 0.00 0.00 0.00 0.00 0.00 0.00 0.00 0.00 0.00 0.00 0.00 0.00 0.00 0.00
0.16 0.17 0.18 0.16 0.15 0.16 0.16 0.15 0.16 0.15 0.22 0.38 0.54 0.75 0.98 0.90 1.12 0.93 1.27 1.15 0.71 0.51 0.36 0.24 0.36 0.85 0.73 0.62 0.61 0.61 0.63 0.51 0.37 0.30 0.21 0.16 0.05 0.02 0.00 0.00 0.00 0.00 0.00 0.00 0.00 0.00 0.00 0.00 0.00 0.00 0.00 0.00 0.00 0.00
0.20 0.20 0.18 0.12 0.10 0.10 0.12 0.13 0.13 0.19 0.37 0.57 0.81 0.97 0.80 0.96 1.07 1.11 1.18 0.98 0.65 0.35 0.11 0.04 0.17 0.72 0.74 0.55 0.56 0.41 0.64 0.60 0.37 0.25 0.27 0.22 0.10 0.03 0.02 0.02 0.01 0.00 0.01 0.01 0.01 0.01 0.00 0.00 0.00 0.00 0.00 0.00 0.00 0.00
0.18 0.12 0.08 0.06 0.08 0.08 0.08 0.09 0.17 0.33 0.45 0.59 0.77 0.69 0.90 0.89 0.78 0.78 0.72 0.58 0.31 0.10 0.06 0.05 0.07 0.25 0.69 0.69 0.51 0.36 0.33 0.29 0.34 0.20 0.20 0.19 0.14 0.11 0.06 0.04 0.05 0.05 0.05 0.04 0.03 0.02 0.02 0.02 0.02 0.02 0.02 0.03 0.04 0.07
0.15 0.12 0.10 0.08 0.05 0.08 0.14 0.29 0.48 0.58 0.84 0.87 0.63 0.62 0.69 0.51 0.48 0.48 0.55 0.40 0.26 0.04 0.05 0.11 0.17 0.23 0.42 0.63 0.50 0.40 0.31 0.24 0.29 0.32 0.22 0.18 0.11 0.11 0.20 0.26 0.25 0.19 0.15 0.12 0.09 0.06 0.05 0.06 0.08 0.10 0.14 0.21 0.27 0.34
0.11 0.10 0.11 0.16 0.29 0.47 0.49 0.49 0.85 1.15 0.94 0.69 0.50 0.49 0.51 0.49 0.39 0.35 0.42 0.38 0.19 0.10 0.08 0.13 0.28 0.27 0.18 0.39 0.54 0.45 0.40 0.31 0.36 0.25 0.19 0.18 0.20 0.20 0.23 0.22 0.22 0.28 0.31 0.33 0.36 0.37 0.37 0.38 0.47 0.54 0.56 0.56 0.50 0.48
0.12 0.12 0.21 0.47 0.55 0.41 0.37 0.57 0.82 0.71 0.47 0.46 0.36 0.37 0.44 0.51 0.43 0.52 0.48 0.31 0.25 0.22 0.18 0.24 0.31 0.25 0.22 0.31 0.34 0.33 0.32 0.25 0.22 0.21 0.21 0.28 0.33 0.32 0.33 0.33 0.31 0.32 0.32 0.33 0.37 0.38 0.42 0.43 0.37 0.37 0.36 0.32 0.25 0.24
0.09 0.15 0.28 0.34 0.24 0.28 0.37 0.59 0.67 0.29 0.28 0.28 0.37 0.49 0.48 0.54 0.56 0.54 0.43 0.32 0.31 0.34 0.31 0.32 0.26 0.18 0.25 0.22 0.18 0.23 0.19 0.24 0.30 0.33 0.37 0.40 0.38 0.37 0.34 0.34 0.36 0.37 0.35 0.36 0.38 0.34 0.28 0.23 0.18 0.17 0.16 0.15 0.15 0.11
0.12 0.14 0.22 0.18 0.21 0.26 0.32 0.38 0.32 0.30 0.31 0.32 0.62 0.74 0.67 0.57 0.61 0.61 0.56 0.45 0.36 0.28 0.25 0.21 0.23 0.24 0.22 0.17 0.20 0.22 0.30 0.39 0.45 0.51 0.53 0.51 0.53 0.52 0.52 0.47 0.39 0.29 0.26 0.27 0.27 0.27 0.24 0.22 0.14 0.07 0.07 0.09 0.06 0.05
0.20 0.15 0.12 0.12 0.14 0.14 0.13 0.10 0.11 0.12 0.29 0.51 0.54 0.72 0.52 0.56 0.53 0.48 0.51 0.44 0.35 0.32 0.25 0.28 0.23 0.23 0.28 0.28 0.33 0.43 0.52 0.63 0.68 0.65 0.59 0.59 0.60 0.53 0.47 0.37 0.32 0.25 0.24 0.26 0.22 0.21 0.19 0.14 0.10 0.10 0.08 0.07 0.04 0.03
0.47 0.22 0.23 0.30 0.26 0.24 0.10 0.08 0.01 0.15 0.41 0.41 0.38 0.27 0.20 0.24 0.23 0.23 0.17 0.12 0.10 0.08 0.08 0.13 0.17 0.30 0.42 0.47 0.55 0.56 0.58 0.56 0.54 0.48 0.40 0.43 0.45 0.44 0.40 0.33 0.31 0.31 0.25 0.22 0.16 0.14 0.13 0.11 0.10 0.09 0.07 0.05 0.05 0.06
0.49 0.40 0.37 0.32 0.19 0.21 0.06 0.04 0.00 0.07 0.20 0.22 0.15 0.04 0.03 0.04 0.01 0.00 0.00 0.00 0.00 0.00 0.05 0.16 0.35 0.45 0.46 0.50 0.54 0.53 0.52 0.49 0.40 0.26 0.27 0.33 0.40 0.32 0.34 0.31 0.30 0.26 0.20 0.19 0.16 0.15 0.13 0.12 0.15 0.15 0.13 0.12 0.11 0.10
0.26 0.23 0.17 0.10 0.04 0.05 0.04 0.03 0.03 0.03 0.05 0.03 0.02 0.00 0.00 0.00 0.00 0.00 0.00 0.00 0.01 0.06 0.22 0.37 0.38 0.38 0.33 0.33 0.32 0.31 0.33 0.32 0.31 0.24 0.26 0.30 0.34 0.25 0.27 0.31 0.29 0.25 0.22 0.23 0.21 0.23 0.18 0.18 0.17 0.13 0.10 0.08 0.07 0.07
0.07 0.03 0.01 0.00 0.00 0.00 0.00 0.00 0.01 0.01 0.00 0.00 0.00 0.00 0.00 0.01 0.01 0.01 0.01 0.01 0.11 0.27 0.30 0.23 0.20 0.16 0.11 0.13 0.13 0.12 0.17 0.14 0.18 0.27 0.35 0.29 0.29 0.29 0.33 0.39 0.28 0.27 0.26 0.27 0.23 0.20 0.16 0.13 0.08 0.06 0.04 0.03 0.02 0.01
0.00 0.00 0.00 0.00 0.00 0.00 0.00 0.00 0.00 0.00 0.00 0.00 0.01 0.01 0.01 0.01 0.02 0.01 0.02 0.06 0.17 0.29 0.26 0.13 0.08 0.04 0.04 0.07 0.03 0.02 0.02 0.03 0.06 0.12 0.17 0.19 0.21 0.24 0.24 0.26 0.25 0.22 0.19 0.17 0.12 0.09 0.06 0.03 0.01 0.00 0.00 0.00 0.00 0.00
0.00 0.00 0.00 0.00 0.00 0.00 0.00 0.00 0.00 0.00 0.00 0.01 0.00 0.02 0.03 0.02 0.01 0.01 0.03 0.09 0.20 0.14 0.09 0.11 0.10 0.05 0.01 0.01 0.02 0.04 0.06 0.03 0.06 0.09 0.11 0.09 0.09 0.12 0.11 0.10 0.07 0.06 0.04 0.03 0.01 0.00 0.00 0.00 0.00 0.00 0.00 0.00 0.00 0.00
0.00 0.00 0.00 0.00 0.00 0.00 0.00 0.00 0.00 0.00 0.01 0.01 0.02 0.04 0.02 0.01 0.01 0.02 0.04 0.12 0.09 0.08 0.09 0.07 0.02 0.01 0.03 0.03 0.03 0.04 0.04 0.02 0.02 0.03 0.06 0.05 0.05 0.03 0.01 0.00 0.00 0.00 0.00 0.00 0.00 0.00 0.00 0.00 0.00 0.00 0.00 0.00 0.00 0.00
0.01 0.02 0.01 0.01 0.01 0.00 0.00 0.01 0.01 0.01 0.01 0.02 0.03 0.03 0.01 0.02 0.01 0.05 0.07 0.10 0.08 0.08 0.08 0.08 0.05 0.02 0.01 0.01 0.02 0.02 0.01 0.02 0.01 0.00 0.00 0.00 0.00 0.00 0.00 0.00 0.00 0.01 0.01 0.01 0.00 0.00 0.00 0.00 0.00 0.00 0.00 0.00 0.01 0.02
0.01 0.01 0.01 0.02 0.01 0.00 0.01 0.01 0.01 0.01 0.02 0.03 0.03 0.02 0.04 0.03 0.04 0.10 0.11 0.09 0.07 0.07 0.05 0.04 0.02 0.01 0.03 0.03 0.03 0.02 0.00 0.00 0.00 0.00 0.00 0.00 0.00 0.00 0.00 0.00 0.01 0.01 0.01 0.01 0.01 0.01 0.01 0.01 0.01 0.01 0.01 0.01 0.01 0.01
0.01 0.00 0.01 0.01 0.00 0.00 0.01 0.01 0.02 0.03 0.04 0.03 0.04 0.02 0.02 0.03 0.08 0.13 0.15 0.14 0.07 0.03 0.01 0.01 0.00 0.01 0.01 0.01 0.02 0.02 0.01 0.00 0.00 0.00 0.00 0.01 0.00 0.00 0.00 0.01 0.01 0.01 0.00 0.01 0.01 0.01 0.01 0.02 0.02 0.02 0.01 0.01 0.00 0.01
0.01 0.00 0.00 0.00 0.00 0.00 0.03 0.05 0.05 0.04 0.04 0.02 0.03 0.04 0.04 0.07 0.14 0.16 0.17 0.14 0.10 0.07 0.04 0.03 0.05 0.04 0.02 0.01 0.00 0.00 0.00 0.00 0.00 0.00 0.00 0.01 0.02 0.01 0.01 0.01 0.01 0.01 0.01 0.00 0.00 0.00 0.01 0.02 0.02 0.01 0.00 0.01 0.01 0.03
0.00 0.00 0.00 0.00 0.01 0.04 0.05 0.04 0.05 0.03 0.01 0.01 0.01 0.03 0.03 0.09 0.16 0.13 0.09 0.06 0.04 0.03 0.03 0.03 0.03 0.01 0.02 0.02 0.01 0.01 0.01 0.00 0.00 0.00 0.00 0.00 0.01 0.01 0.01 0.02 0.01 0.01 0.01 0.01 0.00 0.00 0.00 0.00 0.00 0.00 0.01 0.01 0.01 0.01
0.00 0.00 0.00 0.01 0.04 0.05 0.04 0.02 0.03 0.01 0.01 0.01 0.02 0.02 0.03 0.07 0.08 0.05 0.04 0.06 0.03 0.03 0.03 0.01 0.00 0.00 0.00 0.00 0.00 0.00 0.01 0.01 0.01 0.01 0.00 0.01 0.01 0.01 0.01 0.01 0.01 0.01 0.01 0.01 0.01 0.01 0.01 0.01 0.01 0.01 0.00 0.01 0.01 0.01
0.00 0.01 0.00 0.01 0.05 0.05 0.05 0.07 0.07 0.09 0.05 0.02 0.03 0.02 0.04 0.03 0.03 0.03 0.03 0.03 0.02 0.01 0.01 0.02 0.02 0.02 0.01 0.00 0.00 0.00 0.00 0.00 0.00 0.00 0.01 0.01 0.01 0.01 0.01 0.01 0.01 0.01 0.02 0.01 0.01 0.01 0.01 0.01 0.01 0.01 0.01 0.01 0.01 0.01
0.00 0.00 0.00 0.00 0.03 0.05 0.04 0.05 0.05 0.03 0.03 0.02 0.03 0.03 0.03 0.02 0.02 0.05 0.04 0.02 0.01 0.01 0.01 0.01 0.02 0.02 0.02 0.00 0.00 0.00 0.00 0.00 0.00 0.00 0.01 0.01 0.01 0.01 0.00 0.01 0.01 0.01 0.00 0.00 0.01 0.01 0.01 0.01 0.01 0.01 0.01 0.01 0.00 0.01

GFSWCAN_prec_precacc24_048.txt.gz
Total_Precipitation_Accumulation
0.31 0.28 0.25 0.21 0.26 0.32 0.37 0.42 0.37 0.38 0.35 0.33 0.33 0.31 0.27 0.31 0.49 0.43 0.80 0.57 0.77 0.66 0.25 0.20 0.20 0.19 0.06 0.03 0.07 0.03 0.13 0.13 0.28 0.20 0.04 0.01 0.01 0.00 0.01 0.00 0.02 0.06 0.05 0.03 0.03 0.04 0.00 0.00 0.00 0.00 0.00 0.00 0.00 0.00
0.27 0.25 0.25 0.24 0.26 0.31 0.35 0.38 0.32 0.36 0.32 0.30 0.29 0.29 0.26 0.30 0.48 0.34 0.49 0.56 0.61 0.94 0.60 0.22 0.19 0.16 0.08 0.01 0.01 0.02 0.04 0.04 0.07 0.11 0.03 0.03 0.02 0.01 0.00 0.00 0.00 0.01 0.05 0.06 0.01 0.00 0.00 0.00 0.00 0.00 0.00 0.00 0.00 0.00
0.31 0.26 0.26 0.25 0.26 0.32 0.32 0.30 0.26 0.27 0.26 0.29 0.27 0.29 0.28 0.36 0.48 0.31 0.34 0.52 0.86 1.36 0.62 0.27 0.15 0.10 0.14 0.03 0.03 0.12 0.04 0.01 0.02 0.06 0.05 0.05 0.03 0.01 0.01 0.00 0.00 0.00 0.01 0.01 0.01 0.01 0.00 0.00 0.00 0.00 0.00 0.00 0.00 0.00
0.24 0.22 0.21 0.22 0.25 0.33 0.33 0.25 0.25 0.26 0.28 0.29 0.27 0.32 0.32 0.49 0.38 0.28 0.44 1.01 1.35 1.26 0.94 0.39 0.29 0.19 0.14 0.13 0.05 0.08 0.07 0.02 0.04 0.06 0.11 0.10 0.04 0.02 0.01 0.01 0.00 0.00 0.00 0.00 0.00 0.00 0.00 0.01 0.01 0.00 0.00 0.00 0.00 0.00
0.14 0.16 0.16 0.18 0.21 0.21 0.20 0.22 0.23 0.30 0.33 0.29 0.31 0.38 0.54 0.48 0.33 0.43 0.58 1.20 1.44 1.46 1.17 0.64 0.24 0.22 0.18 0.14 0.07 0.04 0.07 0.10 0.12 0.18 0.13 0.05 0.02 0.03 0.03 0.02 0.00 0.00 0.00 0.01 0.00 0.00 0.00 0.00 0.00 0.00 0.00 0.00 0.00 0.00
0.14 0.15 0.14 0.15 0.16 0.15 0.14 0.18 0.23 0.25 0.24 0.26 0.38 0.53 0.44 0.30 0.37 0.90 1.29 1.10 0.93 1.10 1.25 1.02 0.30 0.16 0.21 0.23 0.26 0.10 0.08 0.13 0.17 0.15 0.13 0.04 0.01 0.02 0.01 0.00 0.00 0.01 0.02 0.02 0.01 0.01 0.00 0.00 0.00 0.00 0.00 0.00 0.00 0.00
0.22 0.19 0.16 0.15 0.15 0.11 0.13 0.17 0.19 0.20 0.25 0.37 0.42 0.33 0.25 0.31 0.41 0.97 1.00 0.84 0.45 0.78 1.00 0.92 0.73 0.27 0.24 0.40 0.73 0.45 0.29 0.26 0.35 0.28 0.15 0.06 0.02 0.01 0.00 0.00 0.00 0.00 0.00 0.01 0.00 0.00 0.00 0.00 0.00 0.00 0.00 0.00 0.00 0.00
0.32 0.23 0.17 0.14 0.12 0.13 0.15 0.18 0.18 0.21 0.29 0.30 0.26 0.30 0.29 0.45 0.62 0.94 0.68 0.62 0.45 0.48 0.63 0.78 0.95 0.70 0.36 0.47 0.68 0.74 0.47 0.47 0.41 0.28 0.13 0.07 0.08 0.07 0.03 0.00 0.00 0.00 0.00 0.00 0.00 0.00 0.00 0.00 0.00 0.00 0.00 0.00 0.00 0.00
0.25 0.22 0.20 0.16 0.16 0.16 0.15 0.14 0.16 0.24 0.26 0.30 0.43 0.49 0.66 0.95 1.03 0.93 0.68 0.70 0.61 0.49 0.52 0.33 0.75 0.86 0.62 0.50 0.66 0.67 0.68 0.57 0.33 0.23 0.12 0.12 0.09 0.09 0.03 0.00 0.00 0.00 0.00 0.00 0.00 0.00 0.00 0.00 0.00 0.00 0.00 0.00 0.00 0.00
0.20 0.20 0.20 0.16 0.14 0.13 0.11 0.11 0.11 0.12 0.18 0.35 0.54 0.77 0.97 0.89 1.08 0.92 1.27 1.15 0.69 0.43 0.38 0.25 0.37 0.87 0.77 0.71 0.65 0.69 0.73 0.62 0.40 0.32 0.25 0.19 0.10 0.04 0.01 0.01 0.00 0.00 0.00 0.00 0.00 0.00 0.00 0.00 0.00 0.00 0.00 0.00 0.00 0.00
0.23 0.22 0.21 0.15 0.12 0.11 0.12 0.12 0.11 0.18 0.37 0.56 0.80 0.97 0.80 0.95 1.06 1.10 1.14 0.96 0.63 0.30 0.12 0.05 0.22 0.75 0.81 0.74 0.82 0.55 0.71 0.85 0.45 0.28 0.34 0.26 0.15 0.05 0.03 0.03 0.01 0.00 0.01 0.01 0.01 0.01 0.00 0.00 0.00 0.00 0.00 0.00 0.00 0.00
0.18 0.13 0.09 0.07 0.08 0.10 0.09 0.09 0.17 0.34 0.45 0.58 0.78 0.71 0.92 0.93 0.76 0.69 0.67 0.61 0.32 0.13 0.10 0.07 0.10 0.28 0.77 0.86 0.95 0.59 0.51 0.43 0.47 0.23 0.40 0.35 0.18 0.12 0.07 0.05 0.05 0.06 0.05 0.04 0.03 0.02 0.02 0.02 0.02 0.02 0.02 0.03 0.04 0.07
0.15 0.12 0.10 0.07 0.04 0.06 0.13 0.29 0.49 0.58 0.87 0.90 0.64 0.59 0.66 0.48 0.43 0.43 0.56 0.47 0.33 0.06 0.06 0.13 0.21 0.29 0.51 0.90 0.93 0.61 0.56 0.43 0.45 0.46 0.33 0.26 0.13 0.12 0.21 0.26 0.26 0.19 0.15 0.12 0.09 0.06 0.05 0.07 0.08 0.10 0.14 0.22 0.27 0.35
0.11 0.10 0.11 0.16 0.28 0.44 0.48 0.53 0.91 1.16 0.97 0.71 0.48 0.46 0.47 0.47 0.40 0.36 0.45 0.46 0.29 0.13 0.10 0.17 0.37 0.46 0.33 0.56 0.70 0.49 0.47 0.40 0.47 0.39 0.25 0.21 0.24 0.25 0.27 0.26 0.25 0.31 0.34 0.35 0.39 0.40 0.40 0.42 0.51 0.59 0.62 0.64 0.58 0.60
0.12 0.13 0.23 0.48 0.55 0.40 0.37 0.56 0.83 0.71 0.46 0.44 0.32 0.32 0.43 0.53 0.44 0.52 0.49 0.32 0.27 0.24 0.20 0.27 0.49 0.34 0.24 0.37 0.38 0.36 0.33 0.27 0.25 0.27 0.26 0.34 0.39 0.37 0.38 0.39 0.38 0.39 0.40 0.41 0.45 0.46 0.52 0.54 0.47 0.50 0.51 0.47 0.38 0.36
0.09 0.16 0.30 0.35 0.25 0.28 0.36 0.57 0.65 0.25 0.20 0.24 0.36 0.50 0.50 0.56 0.57 0.54 0.43 0.32 0.32 0.37 0.37 0.36 0.34 0.23 0.32 0.23 0.18 0.24 0.20 0.25 0.33 0.37 0.43 0.46 0.44 0.44 0.42 0.42 0.44 0.46 0.44 0.45 0.47 0.44 0.38 0.32 0.27 0.27 0.26 0.25 0.25 0.20
0.12 0.15 0.22 0.18 0.21 0.26 0.32 0.37 0.31 0.29 0.30 0.33 0.63 0.75 0.71 0.60 0.64 0.62 0.57 0.47 0.38 0.31 0.30 0.25 0.26 0.28 0.24 0.17 0.21 0.23 0.33 0.42 0.49 0.54 0.57 0.57 0.58 0.60 0.60 0.54 0.47 0.36 0.33 0.35 0.35 0.34 0.32 0.31 0.21 0.13 0.14 0.17 0.12 0.11
0.20 0.15 0.12 0.12 0.14 0.14 0.13 0.10 0.09 0.12 0.30 0.53 0.56 0.72 0.54 0.60 0.58 0.54 0.56 0.48 0.39 0.35 0.30 0.33 0.27 0.23 0.25 0.26 0.33 0.46 0.57 0.66 0.73 0.71 0.66 0.66 0.66 0.61 0.54 0.44 0.40 0.32 0.31 0.32 0.28 0.27 0.25 0.20 0.14 0.16 0.14 0.12 0.08 0.07
0.47 0.22 0.23 0.30 0.26 0.24 0.11 0.09 0.01 0.14 0.43 0.46 0.45 0.35 0.27 0.34 0.33 0.32 0.25 0.17 0.14 0.13 0.11 0.13 0.17 0.29 0.40 0.45 0.55 0.58 0.62 0.60 0.60 0.55 0.47 0.49 0.51 0.49 0.46 0.38 0.36 0.36 0.29 0.26 0.19 0.16 0.16 0.14 0.13 0.12 0.10 0.06 0.07 0.09
0.50 0.41 0.37 0.32 0.19 0.21 0.06 0.05 0.00 0.07 0.20 0.22 0.16 0.06 0.04 0.06 0.03 0.02 0.01 0.01 0.01 0.01 0.05 0.15 0.34 0.45 0.47 0.52 0.54 0.54 0.55 0.52 0.42 0.28 0.29 0.36 0.43 0.34 0.37 0.33 0.33 0.28 0.21 0.19 0.17 0.15 0.13 0.12 0.15 0.15 0.13 0.12 0.11 0.10
0.30 0.25 0.18 0.10 0.04 0.05 0.04 0.03 0.03 0.03 0.05 0.04 0.03 0.00 0.00 0.00 0.00 0.00 0.00 0.00 0.01 0.05 0.21 0.36 0.37 0.38 0.33 0.33 0.32 0.31 0.31 0.30 0.30 0.23 0.27 0.29 0.33 0.24 0.27 0.30 0.27 0.23 0.21 0.23 0.21 0.22 0.18 0.18 0.17 0.13 0.10 0.08 0.08 0.07
0.08 0.03 0.01 0.00 0.00 0.00 0.00 0.00 0.01 0.01 0.00 0.00 0.00 0.00 0.00 0.01 0.00 0.00 0.00 0.01 0.12 0.28 0.29 0.23 0.21 0.16 0.12 0.13 0.13 0.11 0.15 0.11 0.14 0.19 0.25 0.23 0.22 0.23 0.28 0.33 0.25 0.23 0.24 0.25 0.22 0.20 0.16 0.13 0.08 0.06 0.04 0.03 0.02 0.01
0.00 0.00 0.00 0.00 0.00 0.00 0.00 0.00 0.00 0.00 0.00 0.00 0.00 0.00 0.01 0.01 0.02 0.01 0.01 0.06 0.19 0.30 0.25 0.13 0.09 0.04 0.04 0.07 0.02 0.01 0.01 0.01 0.03 0.07 0.11 0.14 0.16 0.19 0.19 0.20 0.19 0.16 0.16 0.16 0.12 0.09 0.06 0.03 0.01 0.00 0.00 0.00 0.00 0.00
0.00 0.00 0.00 0.00 0.00 0.00 0.00 0.00 0.00 0.00 0.00 0.00 0.00 0.02 0.03 0.02 0.00 0.00 0.03 0.09 0.21 0.14 0.09 0.12 0.08 0.03 0.01 0.01 0.01 0.03 0.04 0.00 0.01 0.04 0.05 0.04 0.05 0.08 0.06 0.06 0.05 0.05 0.04 0.03 0.01 0.00 0.00 0.00 0.00 0.00 0.00 0.00 0.00 0.00
0.00 0.00 0.00 0.00 0.00 0.00 0.00 0.00 0.00 0.00 0.01 0.01 0.01 0.03 0.02 0.01 0.00 0.01 0.04 0.11 0.09 0.09 0.09 0.06 0.01 0.01 0.02 0.02 0.02 0.03 0.02 0.01 0.00 0.01 0.03 0.03 0.03 0.02 0.01 0.00 0.00 0.00 0.00 0.00 0.00 0.00 0.00 0.00 0.00 0.00 0.00 0.00 0.00 0.01
0.01 0.02 0.01 0.01 0.00 0.00 0.00 0.01 0.01 0.01 0.01 0.02 0.03 0.03 0.01 0.01 0.01 0.04 0.08 0.11 0.08 0.09 0.08 0.08 0.05 0.01 0.01 0.01 0.01 0.01 0.01 0.01 0.00 0.00 0.00 0.00 0.00 0.00 0.00 0.00 0.00 0.01 0.01 0.01 0.00 0.00 0.00 0.00 0.00 0.00 0.00 0.00 0.01 0.02
0.01 0.01 0.01 0.02 0.01 0.00 0.01 0.01 0.00 0.00 0.02 0.03 0.03 0.02 0.03 0.02 0.03 0.10 0.11 0.09 0.06 0.07 0.05 0.04 0.02 0.01 0.02 0.03 0.02 0.02 0.00 0.00 0.00 0.00 0.00 0.00 0.00 0.00 0.00 0.00 0.01 0.01 0.01 0.01 0.01 0.01 0.01 0.01 0.01 0.01 0.01 0.01 0.01 0.01
0.01 0.00 0.01 0.01 0.00 0.00 0.00 0.01 0.01 0.03 0.03 0.03 0.04 0.01 0.01 0.03 0.08 0.14 0.15 0.14 0.07 0.03 0.01 0.01 0.00 0.00 0.01 0.01 0.02 0.02 0.01 0.00 0.00 0.00 0.00 0.01 0.00 0.00 0.01 0.01 0.01 0.01 0.01 0.01 0.01 0.01 0.01 0.02 0.02 0.01 0.01 0.01 0.00 0.00
0.01 0.00 0.00 0.00 0.00 0.00 0.03 0.04 0.04 0.04 0.04 0.02 0.02 0.03 0.04 0.07 0.14 0.15 0.17 0.14 0.10 0.05 0.03 0.03 0.05 0.03 0.02 0.01 0.00 0.00 0.00 0.00 0.00 0.00 0.00 0.01 0.02 0.01 0.00 0.01 0.01 0.01 0.01 0.01 0.00 0.00 0.01 0.02 0.02 0.01 0.00 0.01 0.01 0.02
0.00 0.00 0.00 0.00 0.01 0.03 0.05 0.03 0.04 0.03 0.01 0.01 0.01 0.02 0.03 0.09 0.16 0.13 0.08 0.06 0.04 0.03 0.03 0.02 0.02 0.01 0.02 0.02 0.01 0.01 0.00 0.00 0.00 0.00 0.00 0.00 0.01 0.01 0.01 0.02 0.01 0.01 0.01 0.01 0.00 0.00 0.00 0.00 0.00 0.00 0.00 0.01 0.01 0.01
0.00 0.00 0.00 0.00 0.03 0.05 0.04 0.02 0.02 0.00 0.00 0.01 0.01 0.01 0.03 0.06 0.07 0.05 0.04 0.05 0.03 0.03 0.02 0.01 0.00 0.01 0.00 0.00 0.00 0.00 0.01 0.01 0.01 0.01 0.00 0.01 0.01 0.01 0.01 0.01 0.01 0.01 0.01 0.01 0.01 0.01 0.01 0.00 0.01 0.01 0.00 0.00 0.01 0.01
0.00 0.01 0.00 0.01 0.05 0.05 0.06 0.08 0.07 0.07 0.04 0.02 0.02 0.02 0.03 0.02 0.03 0.03 0.03 0.02 0.01 0.01 0.02 0.02 0.02 0.02 0.01 0.00 0.00 0.00 0.00 0.00 0.01 0.00 0.01 0.01 0.01 0.01 0.01 0.01 0.01 0.01 0.01 0.01 0.01 0.01 0.01 0.01 0.01 0.01 0.01 0.01 0.01 0.01
0.00 0.00 0.00 0.00 0.03 0.05 0.04 0.05 0.05 0.03 0.02 0.02 0.02 0.03 0.03 0.02 0.02 0.04 0.03 0.02 0.02 0.01 0.01 0.01 0.01 0.02 0.02 0.00 0.00 0.00 0.00 0.00 0.00 0.00 0.01 0.01 0.01 0.00 0.00 0.00 0.01 0.00 0.00 0.00 0.01 0.01 0.01 0.01 0.01 0.01 0.01 0.01 0.00 0.01

GFSWCAN_prec_precacc24_051.txt.gz
Total_Precipitation_Accumulation
0.31 0.30 0.26 0.22 0.27 0.32 0.34 0.38 0.35 0.34 0.33 0.34 0.35 0.34 0.28 0.31 0.50 0.47 0.96 0.62 0.84 0.99 0.29 0.20 0.22 0.19 0.06 0.05 0.07 0.02 0.12 0.12 0.29 0.29 0.07 0.03 0.01 0.01 0.01 0.05 0.14 0.11 0.05 0.03 0.05 0.06 0.00 0.00 0.00 0.00 0.00 0.00 0.00 0.00
0.31 0.27 0.26 0.25 0.27 0.31 0.35 0.36 0.31 0.36 0.32 0.31 0.31 0.31 0.29 0.33 0.51 0.38 0.53 0.60 0.57 0.94 0.70 0.23 0.20 0.16 0.09 0.01 0.02 0.03 0.04 0.04 0.08 0.24 0.10 0.07 0.03 0.02 0.00 0.00 0.01 0.05 0.05 0.06 0.01 0.00 0.00 0.00 0.00 0.00 0.00 0.00 0.00 0.00
0.32 0.28 0.28 0.25 0.27 0.35 0.34 0.31 0.27 0.29 0.31 0.31 0.28 0.31 0.33 0.44 0.53 0.36 0.30 0.53 0.78 0.96 0.71 0.33 0.15 0.11 0.15 0.04 0.04 0.14 0.04 0.01 0.03 0.07 0.10 0.11 0.06 0.02 0.01 0.00 0.00 0.00 0.01 0.01 0.01 0.01 0.00 0.02 0.03 0.01 0.00 0.00 0.00 0.00
0.26 0.25 0.22 0.22 0.26 0.37 0.35 0.26 0.27 0.28 0.31 0.34 0.30 0.34 0.40 0.62 0.47 0.27 0.26 0.57 0.81 0.87 0.67 0.39 0.33 0.20 0.14 0.16 0.09 0.10 0.08 0.03 0.06 0.11 0.16 0.18 0.11 0.02 0.01 0.01 0.00 0.00 0.00 0.00 0.00 0.00 0.00 0.02 0.02 0.02 0.01 0.00 0.00 0.00
0.16 0.17 0.16 0.18 0.21 0.23 0.23 0.24 0.27 0.32 0.37 0.32 0.34 0.44 0.64 0.61 0.43 0.29 0.33 0.55 0.70 0.96 0.83 0.57 0.26 0.24 0.19 0.15 0.12 0.06 0.08 0.13 0.16 0.25 0.28 0.12 0.05 0.04 0.03 0.03 0.00 0.00 0.00 0.01 0.00 0.00 0.00 0.00 0.00 0.03 0.01 0.00 0.00 0.00
0.12 0.12 0.11 0.11 0.13 0.16 0.22 0.27 0.31 0.31 0.26 0.27 0.46 0.62 0.54 0.40 0.39 0.50 0.99 0.86 0.64 0.79 1.04 0.97 0.30 0.16 0.23 0.23 0.27 0.10 0.07 0.15 0.22 0.23 0.22 0.19 0.06 0.04 0.04 0.01 0.00 0.01 0.02 0.02 0.01 0.01 0.01 0.00 0.00 0.00 0.00 0.00 0.00 0.00
0.10 0.10 0.10 0.09 0.10 0.13 0.16 0.19 0.21 0.21 0.27 0.44 0.49 0.38 0.29 0.32 0.26 0.35 0.64 0.71 0.31 0.61 0.87 0.88 0.70 0.24 0.26 0.41 0.73 0.45 0.29 0.27 0.38 0.35 0.24 0.11 0.08 0.06 0.02 0.01 0.00 0.00 0.00 0.01 0.00 0.00 0.00 0.00 0.00 0.00 0.00 0.00 0.00 0.00
0.07 0.08 0.08 0.09 0.09 0.10 0.14 0.17 0.18 0.22 0.30 0.32 0.31 0.34 0.32 0.41 0.34 0.36 0.57 0.57 0.39 0.44 0.59 0.76 0.95 0.72 0.37 0.47 0.67 0.74 0.47 0.47 0.51 0.49 0.30 0.12 0.11 0.15 0.07 0.01 0.00 0.00 0.00 0.00 0.00 0.00 0.00 0.00 0.00 0.00 0.00 0.00 0.00 0.00
0.10 0.12 0.13 0.13 0.14 0.14 0.11 0.12 0.16 0.24 0.27 0.35 0.50 0.51 0.60 0.73 0.69 0.68 0.66 0.69 0.61 0.48 0.50 0.31 0.75 0.86 0.63 0.54 0.70 0.74 0.73 0.58 0.37 0.37 0.40 0.34 0.16 0.19 0.12 0.02 0.00 0.00 0.00 0.00 0.00 0.00 0.00 0.00 0.00 0.00 0.00 0.00 0.00 0.00
0.17 0.19 0.19 0.16 0.12 0.12 0.12 0.12 0.13 0.15 0.20 0.35 0.53 0.70 0.98 0.81 1.01 0.92 1.27 1.16 0.70 0.43 0.37 0.25 0.35 0.86 0.77 0.71 0.67 0.78 0.80 0.64 0.42 0.34 0.35 0.47 0.36 0.09 0.02 0.06 0.04 0.00 0.00 0.00 0.00 0.00 0.00 0.00 0.00 0.00 0.00 0.00 0.00 0.00
0.19 0.23 0.23 0.18 0.15 0.14 0.14 0.13 0.14 0.20 0.37 0.54 0.78 0.95 0.79 0.95 1.06 1.10 1.14 0.95 0.64 0.28 0.10 0.05 0.21 0.74 0.80 0.73 0.79 0.57 0.78 0.84 0.45 0.31 0.37 0.37 0.25 0.08 0.04 0.04 0.03 0.01 0.01 0.01 0.01 0.01 0.00 0.00 0.00 0.00 0.00 0.00 0.00 0.00
0.15 0.12 0.09 0.09 0.11 0.15 0.16 0.15 0.21 0.33 0.42 0.56 0.77 0.70 0.91 0.99 0.76 0.69 0.67 0.62 0.33 0.13 0.12 0.09 0.11 0.28 0.77 0.85 0.93 0.59 0.53 0.50 0.70 0.31 0.47 0.44 0.23 0.13 0.08 0.06 0.06 0.07 0.06 0.05 0.04 0.02 0.02 0.02 0.02 0.02 0.02 0.03 0.04 0.07
0.11 0.07 0.05 0.04 0.03 0.04 0.09 0.26 0.45 0.57 0.88 0.92 0.66 0.69 0.70 0.50 0.41 0.44 0.58 0.52 0.38 0.08 0.09 0.15 0.22 0.30 0.52 0.92 0.98 0.70 0.66 0.53 0.67 0.68 0.40 0.36 0.18 0.14 0.23 0.28 0.27 0.20 0.16 0.12 0.10 0.07 0.06 0.07 0.09 0.11 0.15 0.23 0.28 0.36
0.10 0.09 0.09 0.13 0.22 0.35 0.43 0.52 0.90 1.16 0.98 0.71 0.48 0.46 0.43 0.45 0.41 0.38 0.51 0.57 0.33 0.15 0.12 0.19 0.41 0.54 0.47 0.78 0.97 0.78 0.75 0.62 0.65 0.54 0.31 0.26 0.28 0.29 0.31 0.29 0.27 0.33 0.36 0.37 0.42 0.43 0.43 0.45 0.54 0.62 0.65 0.68 0.61 0.63
0.12 0.13 0.23 0.48 0.52 0.37 0.35 0.56 0.83 0.71 0.46 0.43 0.30 0.31 0.40 0.53 0.44 0.50 0.49 0.35 0.30 0.28 0.28 0.37 0.62 0.52 0.43 0.58 0.54 0.51 0.48 0.38 0.34 0.36 0.35 0.43 0.45 0.42 0.44 0.45 0.44 0.45 0.45 0.46 0.50 0.51 0.57 0.58 0.50 0.55 0.57 0.53 0.43 0.42
0.09 0.16 0.30 0.34 0.23 0.27 0.35 0.56 0.63 0.22 0.14 0.17 0.29 0.44 0.43 0.50 0.50 0.51 0.41 0.31 0.32 0.41 0.41 0.38 0.41 0.31 0.39 0.29 0.21 0.27 0.22 0.28 0.37 0.42 0.49 0.54 0.51 0.51 0.50 0.50 0.53 0.54 0.51 0.52 0.55 0.50 0.44 0.38 0.32 0.33 0.31 0.31 0.31 0.24
0.12 0.15 0.22 0.18 0.21 0.26 0.32 0.35 0.22 0.15 0.17 0.24 0.48 0.59 0.55 0.48 0.52 0.53 0.50 0.43 0.36 0.31 0.29 0.24 0.24 0.27 0.23 0.15 0.19 0.23 0.33 0.44 0.51 0.57 0.61 0.60 0.60 0.64 0.66 0.59 0.53 0.41 0.38 0.41 0.41 0.39 0.38 0.38 0.25 0.15 0.18 0.23 0.16 0.15
0.20 0.15 0.12 0.13 0.16 0.14 0.13 0.09 0.09 0.11 0.26 0.47 0.49 0.60 0.46 0.51 0.51 0.49 0.51 0.45 0.35 0.33 0.29 0.31 0.25 0.21 0.24 0.26 0.34 0.46 0.56 0.65 0.73 0.72 0.67 0.66 0.65 0.65 0.58 0.48 0.46 0.37 0.35 0.36 0.31 0.30 0.28 0.23 0.17 0.21 0.18 0.17 0.11 0.10
0.47 0.22 0.24 0.31 0.26 0.25 0.11 0.09 0.01 0.13 0.40 0.44 0.44 0.36 0.30 0.37 0.37 0.35 0.28 0.19 0.15 0.14 0.13 0.15 0.18 0.32 0.41 0.48 0.55 0.58 0.62 0.62 0.65 0.62 0.52 0.54 0.54 0.54 0.50 0.43 0.39 0.38 0.32 0.30 0.22 0.19 0.19 0.16 0.16 0.14 0.12 0.07 0.09 0.12
0.50 0.41 0.37 0.32 0.19 0.21 0.06 0.05 0.00 0.07 0.21 0.25 0.20 0.08 0.08 0.11 0.07 0.05 0.04 0.03 0.03 0.03 0.08 0.18 0.36 0.46 0.46 0.51 0.53 0.55 0.56 0.54 0.45 0.31 0.32 0.38 0.43 0.34 0.39 0.35 0.34 0.30 0.22 0.20 0.17 0.16 0.13 0.12 0.15 0.15 0.13 0.12 0.11 0.11
0.30 0.25 0.18 0.10 0.04 0.05 0.05 0.04 0.04 0.04 0.06 0.06 0.05 0.01 0.01 0.00 0.00 0.00 0.00 0.00 0.01 0.05 0.21 0.34 0.34 0.38 0.33 0.33 0.32 0.29 0.30 0.27 0.27 0.21 0.24 0.27 0.32 0.22 0.23 0.26 0.23 0.21 0.19 0.21 0.18 0.20 0.17 0.18 0.17 0.13 0.10 0.08 0.08 0.07
0.08 0.03 0.01 0.00 0.00 0.00 0.00 0.00 0.02 0.02 0.00 0.01 0.00 0.00 0.00 0.01 0.00 0.00 0.00 0.01 0.14 0.28 0.28 0.22 0.21 0.17 0.13 0.15 0.14 0.10 0.15 0.09 0.11 0.14 0.18 0.16 0.16 0.17 0.20 0.25 0.19 0.19 0.19 0.20 0.17 0.15 0.14 0.12 0.08 0.06 0.04 0.04 0.02 0.01
0.00 0.00 0.00 0.00 0.00 0.00 0.00 0.00 0.00 0.00 0.00 0.00 0.00 0.00 0.01 0.01 0.02 0.00 0.01 0.07 0.21 0.31 0.24 0.12 0.09 0.04 0.04 0.07 0.02 0.01 0.01 0.01 0.01 0.04 0.06 0.08 0.10 0.12 0.12 0.13 0.12 0.11 0.10 0.11 0.09 0.08 0.06 0.03 0.01 0.00 0.00 0.00 0.00 0.00
0.00 0.00 0.00 0.00 0.00 0.00 0.00 0.00 0.00 0.00 0.00 0.00 0.00 0.02 0.03 0.02 0.00 0.00 0.03 0.09 0.21 0.16 0.11 0.12 0.04 0.01 0.00 0.00 0.01 0.02 0.03 0.00 0.01 0.02 0.03 0.01 0.02 0.04 0.03 0.03 0.03 0.03 0.03 0.02 0.01 0.00 0.00 0.00 0.00 0.00 0.00 0.00 0.00 0.00
0.00 0.00 0.00 0.00 0.00 0.00 0.00 0.00 0.00 0.00 0.00 0.00 0.01 0.03 0.03 0.00 0.00 0.01 0.03 0.10 0.10 0.10 0.09 0.05 0.01 0.01 0.01 0.01 0.02 0.02 0.01 0.00 0.00 0.01 0.02 0.01 0.01 0.01 0.01 0.00 0.00 0.00 0.00 0.00 0.00 0.00 0.00 0.00 0.00 0.00 0.00 0.00 0.00 0.01
0.01 0.02 0.01 0.01 0.00 0.00 0.00 0.00 0.01 0.01 0.01 0.01 0.03 0.03 0.01 0.00 0.00 0.04 0.08 0.10 0.07 0.09 0.09 0.09 0.03 0.01 0.01 0.01 0.00 0.01 0.01 0.00 0.00 0.00 0.00 0.00 0.00 0.00 0.00 0.00 0.00 0.00 0.01 0.01 0.00 0.00 0.00 0.00 0.00 0.00 0.00 0.00 0.00 0.01
0.01 0.01 0.01 0.02 0.01 0.00 0.00 0.00 0.00 0.00 0.01 0.02 0.02 0.01 0.02 0.01 0.03 0.09 0.12 0.09 0.05 0.07 0.05 0.04 0.01 0.01 0.02 0.02 0.02 0.01 0.00 0.00 0.00 0.00 0.00 0.00 0.00 0.00 0.00 0.00 0.01 0.01 0.01 0.01 0.01 0.01 0.01 0.01 0.01 0.01 0.01 0.01 0.01 0.01
0.01 0.00 0.01 0.00 0.00 0.00 0.00 0.01 0.01 0.02 0.03 0.03 0.02 0.01 0.01 0.02 0.07 0.14 0.13 0.12 0.06 0.02 0.01 0.01 0.00 0.00 0.00 0.01 0.02 0.01 0.01 0.00 0.00 0.00 0.00 0.01 0.00 0.00 0.01 0.01 0.01 0.01 0.01 0.01 0.01 0.01 0.01 0.02 0.02 0.01 0.01 0.01 0.00 0.00
0.00 0.00 0.00 0.00 0.00 0.00 0.02 0.03 0.03 0.03 0.03 0.03 0.01 0.03 0.03 0.07 0.13 0.13 0.15 0.11 0.07 0.03 0.02 0.02 0.04 0.01 0.00 0.00 0.00 0.00 0.00 0.00 0.00 0.00 0.00 0.01 0.01 0.01 0.00 0.01 0.01 0.01 0.01 0.01 0.00 0.00 0.01 0.02 0.02 0.01 0.00 0.00 0.01 0.02
0.00 0.00 0.00 0.00 0.01 0.03 0.06 0.03 0.04 0.03 0.01 0.00 0.00 0.02 0.03 0.10 0.16 0.12 0.08 0.07 0.04 0.03 0.02 0.02 0.02 0.02 0.02 0.02 0.01 0.00 0.00 0.00 0.00 0.00 0.00 0.01 0.01 0.01 0.01 0.01 0.01 0.01 0.01 0.01 0.00 0.00 0.00 0.00 0.00 0.00 0.01 0.00 0.00 0.01
0.00 0.00 0.00 0.00 0.03 0.05 0.04 0.02 0.01 0.00 0.00 0.01 0.00 0.00 0.03 0.06 0.07 0.05 0.04 0.03 0.02 0.01 0.01 0.00 0.01 0.01 0.01 0.00 0.01 0.00 0.01 0.01 0.01 0.01 0.00 0.01 0.01 0.01 0.01 0.01 0.01 0.01 0.01 0.01 0.01 0.01 0.01 0.00 0.00 0.00 0.00 0.00 0.00 0.00
0.00 0.00 0.00 0.01 0.05 0.06 0.07 0.10 0.05 0.04 0.02 0.01 0.02 0.01 0.03 0.01 0.02 0.03 0.03 0.02 0.01 0.02 0.02 0.02 0.02 0.02 0.01 0.00 0.00 0.00 0.00 0.00 0.00 0.00 0.01 0.01 0.01 0.01 0.01 0.01 0.01 0.01 0.01 0.01 0.01 0.00 0.00 0.00 0.01 0.01 0.00 0.00 0.00 0.01
0.00 0.00 0.00 0.00 0.03 0.04 0.04 0.05 0.04 0.03 0.02 0.02 0.02 0.02 0.03 0.01 0.02 0.04 0.03 0.02 0.04 0.02 0.01 0.01 0.01 0.01 0.02 0.00 0.00 0.00 0.00 0.00 0.00 0.00 0.00 0.01 0.00 0.00 0.00 0.00 0.01 0.00 0.00 0.00 0.01 0.01 0.01 0.01 0.01 0.00 0.00 0.01 0.00 0.00

GFSWCAN_prec_precacc24_054.txt.gz
Total_Precipitation_Accumulation
0.31 0.31 0.29 0.25 0.28 0.32 0.34 0.38 0.34 0.32 0.33 0.35 0.36 0.31 0.27 0.30 0.49 0.54 1.18 0.61 0.90 1.17 0.29 0.17 0.22 0.19 0.06 0.05 0.06 0.02 0.09 0.08 0.25 0.26 0.06 0.03 0.01 0.01 0.01 0.05 0.15 0.19 0.17 0.20 0.22 0.16 0.01 0.00 0.00 0.00 0.00 0.00 0.00 0.00
0.35 0.34 0.30 0.26 0.27 0.31 0.34 0.34 0.28 0.33 0.31 0.28 0.30 0.35 0.31 0.32 0.50 0.42 0.67 0.62 0.56 0.97 0.75 0.21 0.19 0.16 0.09 0.01 0.01 0.02 0.04 0.03 0.07 0.22 0.10 0.07 0.03 0.02 0.00 0.00 0.02 0.08 0.13 0.16 0.14 0.08 0.00 0.01 0.01 0.02 0.00 0.00 0.00 0.00
0.44 0.35 0.32 0.27 0.27 0.35 0.33 0.29 0.24 0.27 0.31 0.30 0.28 0.30 0.40 0.49 0.56 0.40 0.34 0.51 0.76 1.00 0.78 0.47 0.23 0.13 0.16 0.05 0.02 0.14 0.04 0.01 0.03 0.06 0.10 0.12 0.08 0.03 0.01 0.00 0.00 0.00 0.01 0.02 0.02 0.01 0.00 0.02 0.04 0.02 0.00 0.00 0.00 0.00
0.29 0.27 0.23 0.22 0.26 0.37 0.33 0.26 0.25 0.28 0.32 0.34 0.30 0.34 0.43 0.75 0.58 0.32 0.25 0.52 0.66 0.69 0.72 0.47 0.44 0.22 0.15 0.17 0.08 0.08 0.07 0.05 0.09 0.15 0.18 0.18 0.14 0.04 0.02 0.02 0.01 0.00 0.02 0.01 0.00 0.00 0.00 0.02 0.02 0.02 0.01 0.00 0.00 0.00
0.19 0.18 0.15 0.19 0.21 0.24 0.25 0.26 0.29 0.33 0.39 0.37 0.38 0.46 0.68 0.72 0.59 0.39 0.30 0.49 0.52 0.59 0.56 0.38 0.33 0.24 0.13 0.13 0.12 0.06 0.09 0.15 0.19 0.34 0.33 0.13 0.06 0.05 0.04 0.05 0.01 0.01 0.01 0.02 0.00 0.00 0.00 0.00 0.00 0.03 0.01 0.00 0.00 0.00
0.13 0.13 0.11 0.14 0.18 0.25 0.26 0.28 0.31 0.32 0.27 0.36 0.50 0.63 0.59 0.51 0.60 0.60 0.98 0.85 0.60 0.44 0.54 0.37 0.28 0.13 0.18 0.18 0.17 0.08 0.06 0.16 0.24 0.26 0.26 0.21 0.09 0.09 0.06 0.01 0.01 0.03 0.03 0.03 0.01 0.02 0.01 0.02 0.01 0.01 0.00 0.00 0.00 0.00
0.10 0.10 0.10 0.11 0.14 0.17 0.18 0.20 0.22 0.22 0.31 0.49 0.52 0.44 0.38 0.50 0.37 0.34 0.45 0.36 0.36 0.38 0.50 0.37 0.38 0.20 0.25 0.40 0.53 0.36 0.22 0.25 0.35 0.34 0.26 0.16 0.11 0.12 0.06 0.03 0.01 0.01 0.02 0.02 0.00 0.00 0.00 0.00 0.00 0.00 0.00 0.00 0.00 0.00
0.07 0.08 0.08 0.08 0.08 0.10 0.14 0.18 0.19 0.23 0.32 0.36 0.37 0.40 0.47 0.45 0.27 0.17 0.23 0.24 0.21 0.31 0.36 0.47 0.68 0.68 0.34 0.45 0.64 0.71 0.42 0.41 0.46 0.45 0.30 0.14 0.15 0.26 0.25 0.06 0.00 0.00 0.00 0.00 0.00 0.00 0.00 0.00 0.00 0.00 0.00 0.00 0.00 0.00
0.07 0.07 0.07 0.07 0.10 0.12 0.12 0.14 0.18 0.26 0.31 0.43 0.62 0.64 0.57 0.58 0.41 0.20 0.44 0.48 0.35 0.28 0.35 0.26 0.69 0.85 0.62 0.53 0.69 0.72 0.72 0.56 0.35 0.35 0.39 0.36 0.21 0.34 0.30 0.15 0.07 0.01 0.00 0.00 0.00 0.00 0.00 0.00 0.00 0.00 0.00 0.00 0.00 0.00
0.12 0.10 0.09 0.09 0.08 0.08 0.09 0.12 0.14 0.16 0.24 0.38 0.43 0.42 0.74 0.46 0.36 0.45 0.97 0.93 0.58 0.35 0.35 0.24 0.34 0.86 0.77 0.71 0.68 0.79 0.86 0.65 0.43 0.35 0.35 0.50 0.48 0.20 0.05 0.09 0.08 0.03 0.01 0.00 0.00 0.00 0.00 0.00 0.00 0.00 0.00 0.00 0.00 0.00
0.15 0.15 0.15 0.15 0.14 0.14 0.14 0.12 0.11 0.15 0.23 0.26 0.35 0.50 0.44 0.38 0.64 0.82 1.04 0.93 0.63 0.28 0.10 0.05 0.20 0.73 0.80 0.72 0.80 0.59 1.04 0.90 0.47 0.34 0.37 0.43 0.39 0.20 0.08 0.04 0.04 0.06 0.04 0.02 0.01 0.01 0.00 0.00 0.00 0.00 0.00 0.00 0.00 0.00
0.13 0.11 0.11 0.13 0.16 0.18 0.18 0.15 0.18 0.25 0.28 0.41 0.52 0.46 0.55 0.77 0.69 0.68 0.67 0.62 0.33 0.13 0.12 0.09 0.09 0.26 0.76 0.85 0.92 0.58 0.65 0.64 0.75 0.35 0.51 0.50 0.26 0.13 0.06 0.06 0.06 0.08 0.07 0.07 0.07 0.07 0.06 0.05 0.05 0.04 0.03 0.03 0.04 0.07
0.07 0.06 0.06 0.05 0.05 0.05 0.09 0.24 0.38 0.51 0.85 0.85 0.62 0.64 0.67 0.49 0.41 0.45 0.59 0.53 0.39 0.11 0.10 0.15 0.17 0.27 0.51 0.91 0.96 0.69 0.67 0.58 0.74 0.84 0.46 0.40 0.20 0.15 0.23 0.29 0.29 0.22 0.17 0.14 0.11 0.09 0.08 0.10 0.12 0.13 0.18 0.26 0.30 0.39
0.05 0.05 0.05 0.06 0.12 0.24 0.35 0.49 0.90 1.15 0.98 0.71 0.47 0.44 0.42 0.44 0.42 0.40 0.53 0.58 0.35 0.16 0.13 0.21 0.35 0.48 0.43 0.75 0.96 0.80 0.79 0.66 0.66 0.55 0.33 0.29 0.31 0.32 0.33 0.31 0.28 0.36 0.39 0.40 0.45 0.45 0.46 0.47 0.58 0.66 0.71 0.75 0.65 0.69
0.09 0.10 0.19 0.33 0.32 0.26 0.32 0.55 0.83 0.71 0.46 0.43 0.30 0.31 0.40 0.55 0.44 0.50 0.51 0.37 0.30 0.30 0.34 0.49 0.73 0.58 0.48 0.60 0.57 0.54 0.50 0.40 0.35 0.39 0.40 0.48 0.49 0.46 0.48 0.49 0.49 0.51 0.51 0.52 0.56 0.55 0.62 0.62 0.52 0.60 0.63 0.57 0.46 0.45
0.08 0.14 0.25 0.27 0.19 0.25 0.35 0.56 0.63 0.22 0.14 0.16 0.29 0.43 0.42 0.49 0.48 0.50 0.41 0.30 0.32 0.46 0.50 0.44 0.48 0.37 0.46 0.34 0.25 0.32 0.28 0.34 0.43 0.49 0.62 0.67 0.62 0.61 0.61 0.59 0.62 0.63 0.59 0.60 0.62 0.55 0.49 0.42 0.35 0.37 0.35 0.33 0.34 0.26
0.12 0.14 0.22 0.18 0.21 0.25 0.31 0.33 0.19 0.11 0.15 0.23 0.46 0.56 0.53 0.45 0.47 0.50 0.46 0.38 0.34 0.31 0.27 0.22 0.22 0.27 0.23 0.16 0.20 0.22 0.33 0.47 0.56 0.61 0.66 0.68 0.69 0.73 0.73 0.65 0.60 0.46 0.42 0.46 0.46 0.43 0.42 0.41 0.27 0.16 0.20 0.26 0.18 0.16
0.20 0.16 0.12 0.13 0.16 0.14 0.13 0.08 0.04 0.07 0.21 0.40 0.43 0.52 0.38 0.42 0.43 0.40 0.43 0.39 0.29 0.25 0.22 0.23 0.17 0.16 0.20 0.22 0.29 0.40 0.50 0.61 0.70 0.73 0.70 0.71 0.69 0.67 0.60 0.50 0.48 0.39 0.37 0.40 0.34 0.32 0.30 0.24 0.18 0.22 0.20 0.18 0.12 0.10
0.48 0.23 0.25 0.32 0.26 0.25 0.11 0.09 0.01 0.11 0.32 0.37 0.38 0.31 0.26 0.33 0.33 0.32 0.26 0.18 0.12 0.11 0.11 0.13 0.16 0.28 0.37 0.46 0.49 0.52 0.57 0.59 0.64 0.63 0.54 0.55 0.57 0.56 0.52 0.45 0.39 0.37 0.32 0.32 0.24 0.21 0.20 0.16 0.16 0.15 0.12 0.08 0.09 0.12
0.50 0.41 0.38 0.33 0.19 0.21 0.06 0.05 0.00 0.06 0.19 0.22 0.18 0.07 0.07 0.11 0.08 0.05 0.05 0.03 0.04 0.04 0.07 0.16 0.34 0.43 0.42 0.48 0.47 0.49 0.51 0.51 0.44 0.31 0.31 0.34 0.39 0.32 0.36 0.31 0.30 0.28 0.20 0.19 0.17 0.15 0.13 0.12 0.14 0.15 0.13 0.12 0.11 0.11
0.30 0.25 0.18 0.10 0.04 0.05 0.05 0.04 0.04 0.04 0.07 0.10 0.06 0.01 0.01 0.00 0.00 0.00 0.00 0.00 0.01 0.05 0.21 0.33 0.32 0.37 0.31 0.32 0.29 0.27 0.29 0.26 0.25 0.19 0.23 0.25 0.29 0.18 0.18 0.21 0.19 0.16 0.15 0.16 0.15 0.16 0.13 0.13 0.14 0.12 0.10 0.08 0.08 0.07
0.08 0.03 0.01 0.00 0.00 0.00 0.00 0.00 0.02 0.02 0.01 0.01 0.01 0.00 0.00 0.01 0.00 0.00 0.00 0.01 0.15 0.26 0.26 0.21 0.21 0.18 0.14 0.15 0.14 0.10 0.14 0.09 0.09 0.10 0.12 0.11 0.11 0.11 0.13 0.16 0.12 0.12 0.12 0.12 0.11 0.10 0.09 0.08 0.07 0.06 0.04 0.04 0.02 0.01
0.00 0.00 0.00 0.00 0.00 0.00 0.00 0.00 0.00 0.00 0.00 0.00 0.00 0.00 0.01 0.01 0.00 0.00 0.01 0.08 0.23 0.29 0.20 0.10 0.09 0.05 0.04 0.07 0.02 0.01 0.00 0.00 0.01 0.02 0.03 0.03 0.04 0.06 0.06 0.07 0.07 0.07 0.06 0.08 0.06 0.05 0.04 0.02 0.01 0.00 0.00 0.00 0.00 0.00
0.00 0.00 0.00 0.00 0.00 0.00 0.00 0.00 0.00 0.00 0.00 0.00 0.00 0.02 0.03 0.02 0.00 0.00 0.03 0.10 0.22 0.17 0.10 0.09 0.03 0.01 0.00 0.00 0.01 0.01 0.02 0.00 0.00 0.01 0.01 0.00 0.00 0.02 0.01 0.01 0.01 0.01 0.01 0.01 0.00 0.00 0.00 0.00 0.00 0.00 0.00 0.00 0.00 0.00
0.00 0.00 0.00 0.00 0.00 0.00 0.00 0.00 0.00 0.00 0.00 0.00 0.01 0.03 0.02 0.00 0.00 0.01 0.03 0.11 0.10 0.10 0.08 0.04 0.01 0.01 0.01 0.01 0.01 0.01 0.00 0.00 0.00 0.00 0.01 0.01 0.00 0.00 0.00 0.00 0.00 0.00 0.00 0.00 0.00 0.00 0.00 0.00 0.00 0.00 0.00 0.00 0.00 0.00
0.01 0.01 0.01 0.01 0.00 0.00 0.00 0.00 0.01 0.01 0.01 0.01 0.03 0.03 0.01 0.00 0.01 0.04 0.07 0.10 0.07 0.08 0.09 0.08 0.03 0.01 0.01 0.00 0.00 0.01 0.00 0.00 0.00 0.00 0.00 0.00 0.00 0.00 0.00 0.00 0.00 0.01 0.01 0.01 0.00 0.01 0.00 0.00 0.00 0.00 0.00 0.00 0.00 0.01
0.00 0.00 0.01 0.02 0.01 0.00 0.00 0.00 0.00 0.00 0.01 0.02 0.02 0.01 0.00 0.00 0.02 0.08 0.11 0.08 0.05 0.06 0.05 0.03 0.01 0.00 0.01 0.01 0.01 0.01 0.00 0.00 0.00 0.00 0.00 0.00 0.00 0.00 0.00 0.00 0.01 0.02 0.01 0.01 0.01 0.01 0.01 0.01 0.01 0.01 0.01 0.00 0.00 0.01
0.01 0.00 0.00 0.00 0.00 0.00 0.00 0.00 0.00 0.02 0.03 0.03 0.01 0.00 0.01 0.01 0.06 0.12 0.10 0.10 0.04 0.02 0.01 0.00 0.00 0.00 0.01 0.01 0.02 0.02 0.01 0.00 0.00 0.00 0.00 0.01 0.00 0.00 0.01 0.01 0.01 0.01 0.00 0.01 0.01 0.01 0.01 0.02 0.01 0.01 0.01 0.01 0.00 0.01
0.00 0.00 0.00 0.00 0.00 0.00 0.02 0.02 0.03 0.03 0.03 0.03 0.00 0.02 0.03 0.06 0.10 0.10 0.11 0.09 0.05 0.02 0.02 0.01 0.02 0.01 0.00 0.00 0.00 0.00 0.00 0.00 0.00 0.00 0.00 0.01 0.01 0.01 0.00 0.01 0.01 0.01 0.01 0.01 0.00 0.00 0.01 0.02 0.01 0.01 0.00 0.00 0.01 0.01
0.00 0.00 0.00 0.00 0.01 0.03 0.06 0.03 0.03 0.02 0.00 0.00 0.01 0.02 0.03 0.10 0.16 0.11 0.08 0.07 0.04 0.02 0.02 0.02 0.02 0.02 0.01 0.01 0.01 0.00 0.00 0.00 0.00 0.00 0.00 0.01 0.01 0.01 0.01 0.01 0.01 0.01 0.01 0.01 0.00 0.00 0.01 0.00 0.00 0.00 0.00 0.00 0.01 0.00
0.00 0.00 0.00 0.00 0.03 0.05 0.03 0.01 0.01 0.00 0.00 0.01 0.00 0.00 0.03 0.06 0.07 0.05 0.03 0.02 0.01 0.01 0.01 0.01 0.01 0.01 0.01 0.00 0.00 0.00 0.01 0.01 0.00 0.00 0.00 0.01 0.01 0.01 0.01 0.01 0.01 0.01 0.01 0.01 0.00 0.00 0.00 0.00 0.01 0.00 0.00 0.00 0.00 0.00
0.00 0.00 0.00 0.01 0.05 0.06 0.07 0.09 0.03 0.01 0.02 0.01 0.01 0.01 0.02 0.01 0.02 0.02 0.02 0.02 0.02 0.02 0.02 0.02 0.02 0.02 0.01 0.00 0.00 0.00 0.00 0.00 0.00 0.00 0.01 0.01 0.01 0.01 0.01 0.00 0.01 0.01 0.01 0.00 0.00 0.00 0.00 0.01 0.01 0.01 0.00 0.00 0.00 0.00
0.00 0.00 0.00 0.00 0.03 0.04 0.04 0.05 0.04 0.02 0.02 0.02 0.02 0.03 0.03 0.01 0.02 0.03 0.02 0.02 0.04 0.02 0.01 0.01 0.01 0.01 0.00 0.00 0.00 0.00 0.00 0.00 0.00 0.00 0.00 0.00 0.00 0.00 0.00 0.00 0.01 0.00 0.00 0.00 0.00 0.00 0.01 0.01 0.01 0.00 0.00 0.00 0.00 0.00

GFSWCAN_prec_precacc24_057.txt.gz
Total_Precipitation_Accumulation
0.16 0.16 0.16 0.13 0.18 0.26 0.32 0.37 0.35 0.33 0.34 0.35 0.37 0.32 0.27 0.31 0.49 0.63 1.39 0.72 0.94 1.20 0.27 0.16 0.19 0.19 0.06 0.05 0.06 0.02 0.08 0.07 0.22 0.23 0.06 0.03 0.01 0.01 0.01 0.05 0.15 0.19 0.18 0.20 0.25 0.25 0.09 0.01 0.03 0.04 0.01 0.00 0.00 0.00
0.31 0.32 0.28 0.24 0.25 0.30 0.33 0.33 0.28 0.32 0.31 0.29 0.31 0.38 0.32 0.32 0.50 0.43 0.84 0.75 0.65 0.99 0.71 0.20 0.18 0.16 0.09 0.01 0.01 0.02 0.04 0.02 0.07 0.20 0.10 0.07 0.03 0.02 0.00 0.00 0.02 0.08 0.13 0.16 0.15 0.16 0.06 0.04 0.06 0.09 0.06 0.01 0.00 0.00
0.47 0.36 0.33 0.27 0.27 0.34 0.32 0.28 0.23 0.26 0.31 0.30 0.28 0.31 0.42 0.49 0.56 0.37 0.46 0.61 0.90 1.06 0.64 0.46 0.23 0.13 0.17 0.05 0.02 0.14 0.03 0.00 0.02 0.02 0.07 0.11 0.08 0.03 0.01 0.00 0.00 0.00 0.01 0.02 0.03 0.01 0.00 0.03 0.04 0.02 0.01 0.00 0.01 0.01
0.31 0.29 0.23 0.21 0.25 0.36 0.32 0.24 0.22 0.27 0.31 0.35 0.31 0.33 0.42 0.77 0.60 0.34 0.29 0.55 0.67 0.60 0.48 0.36 0.36 0.19 0.15 0.19 0.10 0.08 0.07 0.05 0.09 0.15 0.16 0.18 0.14 0.04 0.02 0.02 0.01 0.00 0.03 0.03 0.01 0.00 0.00 0.02 0.02 0.02 0.01 0.00 0.00 0.00
0.20 0.18 0.14 0.20 0.24 0.29 0.26 0.22 0.26 0.33 0.39 0.37 0.37 0.43 0.64 0.77 0.72 0.59 0.29 0.46 0.45 0.42 0.34 0.18 0.27 0.21 0.14 0.15 0.13 0.09 0.10 0.17 0.21 0.33 0.34 0.14 0.06 0.05 0.04 0.05 0.01 0.02 0.04 0.05 0.01 0.03 0.03 0.00 0.01 0.03 0.01 0.00 0.00 0.00
0.14 0.13 0.13 0.21 0.21 0.26 0.24 0.28 0.31 0.31 0.27 0.36 0.46 0.59 0.55 0.58 1.01 0.98 1.07 0.83 0.56 0.34 0.44 0.26 0.26 0.13 0.17 0.18 0.19 0.09 0.08 0.17 0.25 0.27 0.27 0.24 0.13 0.15 0.07 0.01 0.01 0.03 0.07 0.09 0.04 0.03 0.04 0.03 0.02 0.02 0.01 0.00 0.01 0.00
0.10 0.11 0.10 0.12 0.14 0.17 0.19 0.21 0.21 0.20 0.33 0.46 0.46 0.43 0.44 0.80 0.81 0.39 0.44 0.35 0.36 0.33 0.49 0.35 0.23 0.21 0.21 0.33 0.37 0.21 0.16 0.21 0.33 0.35 0.27 0.17 0.16 0.20 0.12 0.04 0.01 0.01 0.02 0.03 0.01 0.02 0.04 0.02 0.01 0.02 0.02 0.01 0.01 0.01
0.08 0.08 0.08 0.09 0.08 0.11 0.15 0.20 0.25 0.31 0.36 0.38 0.41 0.51 0.58 0.57 0.31 0.13 0.12 0.12 0.18 0.35 0.45 0.50 0.32 0.53 0.37 0.43 0.49 0.30 0.27 0.30 0.38 0.42 0.29 0.15 0.19 0.36 0.42 0.10 0.01 0.00 0.00 0.00 0.00 0.00 0.00 0.01 0.02 0.02 0.02 0.01 0.01 0.01
0.07 0.08 0.08 0.08 0.11 0.13 0.14 0.17 0.23 0.31 0.38 0.54 0.79 0.82 0.69 0.52 0.35 0.18 0.30 0.24 0.24 0.33 0.37 0.21 0.33 0.59 0.63 0.48 0.66 0.52 0.46 0.37 0.27 0.30 0.36 0.35 0.22 0.41 0.35 0.15 0.11 0.05 0.01 0.00 0.00 0.00 0.00 0.00 0.01 0.01 0.01 0.00 0.00 0.00
0.11 0.10 0.09 0.10 0.09 0.10 0.11 0.15 0.18 0.22 0.35 0.50 0.53 0.51 0.85 0.42 0.24 0.44 0.93 0.84 0.59 0.32 0.26 0.17 0.17 0.52 0.64 0.63 0.63 0.78 0.62 0.39 0.29 0.32 0.32 0.46 0.47 0.21 0.06 0.10 0.08 0.08 0.10 0.05 0.02 0.00 0.00 0.00 0.00 0.00 0.00 0.00 0.00 0.00
0.11 0.13 0.15 0.15 0.15 0.16 0.19 0.20 0.18 0.17 0.20 0.23 0.39 0.65 0.57 0.37 0.47 0.63 0.81 0.71 0.45 0.17 0.05 0.02 0.12 0.46 0.72 0.71 0.77 0.58 1.04 0.91 0.46 0.34 0.37 0.42 0.40 0.21 0.08 0.04 0.04 0.07 0.04 0.03 0.02 0.02 0.01 0.01 0.01 0.00 0.00 0.00 0.00 0.00
0.10 0.10 0.11 0.14 0.16 0.18 0.18 0.15 0.13 0.12 0.13 0.26 0.41 0.40 0.40 0.39 0.30 0.36 0.47 0.53 0.30 0.12 0.10 0.08 0.07 0.16 0.66 0.83 0.92 0.57 0.66 0.92 0.93 0.43 0.54 0.52 0.29 0.14 0.07 0.06 0.06 0.08 0.08 0.08 0.07 0.07 0.07 0.07 0.06 0.05 0.05 0.05 0.06 0.09
0.05 0.06 0.06 0.06 0.05 0.05 0.08 0.19 0.22 0.23 0.51 0.66 0.39 0.33 0.26 0.19 0.21 0.33 0.55 0.52 0.40 0.12 0.10 0.15 0.17 0.26 0.48 0.89 0.96 0.69 0.69 0.63 0.86 0.99 0.51 0.42 0.21 0.16 0.24 0.29 0.29 0.23 0.18 0.15 0.13 0.11 0.10 0.12 0.13 0.15 0.20 0.29 0.33 0.42
0.01 0.01 0.01 0.03 0.10 0.20 0.24 0.26 0.53 0.73 0.67 0.39 0.24 0.26 0.34 0.41 0.40 0.40 0.54 0.59 0.36 0.18 0.15 0.21 0.35 0.47 0.43 0.75 0.96 0.79 0.81 0.67 0.66 0.58 0.39 0.32 0.33 0.34 0.34 0.32 0.29 0.36 0.38 0.41 0.48 0.48 0.48 0.50 0.60 0.70 0.74 0.79 0.68 0.73
0.00 0.02 0.08 0.19 0.20 0.11 0.13 0.29 0.62 0.57 0.39 0.38 0.28 0.30 0.40 0.56 0.45 0.51 0.52 0.38 0.31 0.31 0.37 0.52 0.73 0.53 0.39 0.52 0.53 0.52 0.49 0.39 0.35 0.39 0.41 0.50 0.51 0.48 0.50 0.51 0.51 0.54 0.55 0.56 0.60 0.58 0.65 0.66 0.55 0.63 0.68 0.61 0.48 0.49
0.04 0.08 0.16 0.15 0.10 0.20 0.30 0.52 0.61 0.21 0.14 0.16 0.28 0.43 0.41 0.49 0.48 0.50 0.41 0.30 0.33 0.48 0.55 0.47 0.51 0.39 0.43 0.30 0.21 0.30 0.28 0.34 0.43 0.49 0.65 0.71 0.67 0.66 0.65 0.63 0.66 0.68 0.63 0.63 0.65 0.59 0.53 0.46 0.38 0.41 0.38 0.36 0.37 0.28
0.05 0.08 0.15 0.15 0.19 0.25 0.31 0.32 0.19 0.11 0.15 0.22 0.41 0.53 0.51 0.43 0.45 0.48 0.44 0.36 0.34 0.31 0.28 0.23 0.21 0.25 0.21 0.14 0.18 0.20 0.33 0.48 0.58 0.62 0.68 0.72 0.73 0.77 0.75 0.65 0.63 0.52 0.48 0.52 0.52 0.48 0.47 0.47 0.31 0.17 0.22 0.29 0.20 0.18
0.18 0.13 0.11 0.13 0.16 0.13 0.11 0.06 0.04 0.07 0.18 0.36 0.38 0.48 0.34 0.36 0.37 0.34 0.33 0.29 0.20 0.17 0.16 0.18 0.13 0.11 0.16 0.20 0.26 0.35 0.42 0.52 0.64 0.67 0.67 0.68 0.66 0.64 0.59 0.50 0.48 0.40 0.38 0.41 0.36 0.33 0.31 0.25 0.19 0.24 0.21 0.19 0.12 0.11
0.49 0.23 0.25 0.32 0.26 0.24 0.10 0.08 0.01 0.09 0.26 0.31 0.31 0.26 0.21 0.27 0.28 0.25 0.19 0.13 0.08 0.08 0.08 0.10 0.13 0.24 0.33 0.40 0.41 0.43 0.47 0.48 0.54 0.56 0.51 0.52 0.53 0.51 0.48 0.39 0.33 0.31 0.29 0.31 0.23 0.21 0.20 0.16 0.16 0.15 0.12 0.08 0.10 0.12
0.52 0.41 0.38 0.33 0.19 0.21 0.06 0.05 0.00 0.04 0.14 0.16 0.14 0.06 0.07 0.12 0.09 0.06 0.05 0.04 0.05 0.04 0.07 0.14 0.29 0.36 0.34 0.38 0.36 0.38 0.39 0.39 0.35 0.28 0.28 0.31 0.34 0.26 0.29 0.25 0.25 0.24 0.17 0.16 0.14 0.13 0.11 0.10 0.12 0.12 0.12 0.11 0.10 0.11
0.30 0.25 0.18 0.10 0.04 0.05 0.05 0.04 0.04 0.03 0.07 0.11 0.06 0.01 0.02 0.00 0.00 0.00 0.00 0.00 0.01 0.05 0.20 0.30 0.29 0.33 0.26 0.27 0.24 0.21 0.24 0.20 0.19 0.15 0.20 0.22 0.24 0.14 0.14 0.15 0.14 0.11 0.10 0.11 0.09 0.10 0.08 0.08 0.09 0.07 0.06 0.06 0.06 0.06
0.08 0.03 0.01 0.00 0.00 0.00 0.00 0.00 0.03 0.03 0.01 0.02 0.02 0.01 0.00 0.00 0.00 0.00 0.00 0.01 0.14 0.24 0.25 0.20 0.20 0.17 0.13 0.15 0.14 0.09 0.12 0.07 0.06 0.07 0.08 0.07 0.06 0.05 0.06 0.09 0.05 0.05 0.06 0.06 0.06 0.05 0.05 0.05 0.03 0.02 0.02 0.03 0.02 0.01
0.00 0.00 0.00 0.00 0.00 0.00 0.00 0.00 0.00 0.00 0.00 0.00 0.00 0.00 0.01 0.01 0.00 0.00 0.01 0.08 0.24 0.26 0.17 0.10 0.09 0.05 0.04 0.07 0.02 0.01 0.00 0.00 0.00 0.01 0.01 0.01 0.01 0.02 0.02 0.02 0.02 0.02 0.03 0.03 0.02 0.02 0.02 0.01 0.00 0.00 0.00 0.00 0.00 0.00
0.00 0.00 0.00 0.00 0.00 0.00 0.00 0.00 0.00 0.00 0.00 0.00 0.00 0.02 0.03 0.01 0.00 0.00 0.04 0.11 0.21 0.15 0.09 0.08 0.03 0.01 0.00 0.00 0.01 0.01 0.01 0.00 0.00 0.01 0.01 0.00 0.00 0.00 0.00 0.00 0.00 0.00 0.00 0.00 0.00 0.00 0.00 0.00 0.00 0.00 0.00 0.00 0.00 0.00
0.00 0.00 0.00 0.00 0.00 0.00 0.00 0.00 0.00 0.00 0.00 0.00 0.01 0.03 0.02 0.00 0.00 0.01 0.03 0.11 0.11 0.10 0.07 0.03 0.01 0.01 0.01 0.01 0.01 0.01 0.00 0.00 0.00 0.00 0.01 0.00 0.00 0.00 0.00 0.00 0.00 0.00 0.00 0.00 0.00 0.00 0.00 0.00 0.00 0.00 0.00 0.00 0.00 0.00
0.01 0.01 0.01 0.01 0.00 0.00 0.00 0.00 0.01 0.01 0.00 0.01 0.02 0.03 0.00 0.00 0.01 0.03 0.07 0.09 0.06 0.07 0.08 0.07 0.03 0.01 0.01 0.00 0.00 0.00 0.00 0.00 0.00 0.00 0.01 0.00 0.00 0.00 0.00 0.00 0.00 0.01 0.01 0.01 0.00 0.01 0.00 0.00 0.00 0.00 0.00 0.00 0.00 0.01
0.00 0.01 0.00 0.02 0.00 0.00 0.00 0.00 0.00 0.00 0.01 0.02 0.02 0.01 0.00 0.00 0.02 0.07 0.11 0.08 0.04 0.05 0.03 0.02 0.01 0.00 0.00 0.00 0.01 0.00 0.00 0.00 0.00 0.00 0.00 0.00 0.00 0.00 0.00 0.00 0.01 0.02 0.01 0.01 0.01 0.01 0.01 0.01 0.01 0.01 0.01 0.00 0.00 0.01
0.01 0.00 0.00 0.00 0.00 0.00 0.00 0.00 0.00 0.01 0.02 0.02 0.00 0.00 0.01 0.01 0.06 0.10 0.08 0.07 0.03 0.01 0.00 0.00 0.00 0.00 0.01 0.01 0.02 0.01 0.01 0.00 0.00 0.00 0.00 0.01 0.00 0.00 0.00 0.01 0.00 0.01 0.00 0.00 0.00 0.01 0.01 0.01 0.01 0.01 0.00 0.00 0.00 0.01
0.00 0.00 0.00 0.00 0.00 0.00 0.02 0.02 0.02 0.02 0.03 0.02 0.00 0.02 0.03 0.06 0.09 0.08 0.09 0.06 0.03 0.02 0.01 0.01 0.01 0.00 0.00 0.00 0.00 0.00 0.00 0.00 0.00 0.00 0.00 0.01 0.01 0.01 0.01 0.01 0.01 0.01 0.01 0.01 0.00 0.00 0.01 0.01 0.01 0.00 0.00 0.00 0.01 0.01
0.00 0.00 0.00 0.00 0.01 0.03 0.06 0.03 0.03 0.02 0.00 0.00 0.01 0.02 0.03 0.10 0.16 0.09 0.07 0.06 0.03 0.02 0.01 0.01 0.02 0.02 0.01 0.01 0.01 0.00 0.00 0.00 0.00 0.00 0.00 0.01 0.01 0.01 0.01 0.01 0.01 0.01 0.01 0.01 0.00 0.00 0.01 0.00 0.00 0.00 0.00 0.00 0.00 0.00
0.00 0.00 0.00 0.00 0.03 0.04 0.02 0.01 0.01 0.00 0.00 0.01 0.00 0.00 0.03 0.06 0.07 0.07 0.04 0.02 0.01 0.00 0.01 0.01 0.01 0.01 0.01 0.00 0.00 0.00 0.01 0.00 0.00 0.00 0.00 0.00 0.01 0.01 0.01 0.00 0.01 0.01 0.01 0.01 0.00 0.00 0.00 0.00 0.01 0.00 0.00 0.00 0.00 0.00
0.00 0.00 0.00 0.01 0.05 0.05 0.05 0.07 0.02 0.01 0.02 0.01 0.01 0.01 0.02 0.01 0.02 0.02 0.03 0.02 0.02 0.02 0.01 0.02 0.02 0.02 0.01 0.00 0.00 0.00 0.00 0.00 0.00 0.00 0.01 0.01 0.01 0.01 0.01 0.00 0.01 0.01 0.01 0.00 0.00 0.00 0.00 0.00 0.01 0.01 0.00 0.00 0.00 0.00
0.00 0.00 0.00 0.00 0.02 0.04 0.04 0.04 0.01 0.01 0.01 0.01 0.02 0.02 0.03 0.01 0.01 0.03 0.02 0.02 0.04 0.02 0.01 0.01 0.01 0.01 0.00 0.00 0.00 0.00 0.00 0.00 0.00 0.00 0.00 0.00 0.00 0.00 0.00 0.00 0.01 0.00 0.00 0.00 0.00 0.00 0.00 0.01 0.01 0.00 0.00 0.00 0.00 0.00

GFSWCAN_prec_precacc24_060.txt.gz
Total_Precipitation_Accumulation
0.13 0.13 0.12 0.08 0.11 0.10 0.15 0.21 0.19 0.24 0.28 0.33 0.36 0.33 0.30 0.39 0.61 0.88 1.61 0.67 0.91 1.26 0.33 0.15 0.16 0.18 0.06 0.05 0.06 0.02 0.09 0.07 0.22 0.23 0.05 0.02 0.01 0.00 0.01 0.05 0.15 0.19 0.18 0.20 0.26 0.26 0.09 0.01 0.03 0.04 0.02 0.00 0.00 0.00
0.20 0.21 0.16 0.12 0.10 0.13 0.16 0.19 0.18 0.28 0.29 0.28 0.31 0.37 0.31 0.34 0.57 0.61 1.13 0.70 0.66 1.03 0.74 0.19 0.18 0.16 0.09 0.01 0.01 0.03 0.04 0.02 0.07 0.20 0.09 0.05 0.02 0.02 0.00 0.00 0.02 0.08 0.13 0.16 0.15 0.16 0.06 0.04 0.06 0.10 0.08 0.04 0.01 0.01
0.43 0.31 0.24 0.18 0.17 0.23 0.24 0.23 0.20 0.25 0.30 0.30 0.29 0.31 0.42 0.49 0.56 0.48 0.56 0.49 1.01 1.28 0.75 0.46 0.21 0.12 0.17 0.05 0.02 0.14 0.03 0.00 0.02 0.02 0.05 0.08 0.06 0.02 0.01 0.00 0.00 0.00 0.01 0.02 0.03 0.01 0.00 0.03 0.04 0.02 0.01 0.01 0.02 0.02
0.36 0.31 0.22 0.19 0.22 0.33 0.30 0.23 0.22 0.27 0.32 0.34 0.30 0.32 0.43 0.79 0.61 0.36 0.28 0.40 0.67 0.65 0.55 0.39 0.35 0.18 0.14 0.19 0.10 0.08 0.06 0.05 0.07 0.15 0.14 0.14 0.13 0.04 0.02 0.02 0.01 0.00 0.03 0.03 0.01 0.00 0.00 0.02 0.02 0.02 0.01 0.00 0.00 0.01
0.23 0.17 0.14 0.22 0.26 0.32 0.32 0.27 0.27 0.33 0.38 0.37 0.36 0.42 0.65 0.81 0.81 0.61 0.20 0.32 0.38 0.38 0.34 0.17 0.24 0.20 0.12 0.14 0.13 0.09 0.11 0.16 0.19 0.28 0.30 0.13 0.05 0.04 0.03 0.04 0.01 0.02 0.04 0.05 0.01 0.03 0.03 0.00 0.01 0.03 0.01 0.00 0.00 0.00
0.14 0.13 0.13 0.21 0.21 0.27 0.24 0.28 0.33 0.31 0.27 0.36 0.47 0.61 0.56 0.61 1.29 1.09 1.05 0.78 0.54 0.35 0.43 0.19 0.19 0.11 0.13 0.14 0.16 0.10 0.12 0.20 0.23 0.23 0.22 0.22 0.12 0.17 0.09 0.02 0.01 0.03 0.07 0.09 0.04 0.03 0.04 0.03 0.02 0.02 0.01 0.01 0.02 0.01
0.11 0.12 0.12 0.16 0.15 0.17 0.18 0.20 0.19 0.20 0.35 0.48 0.48 0.42 0.42 0.85 1.15 0.42 0.44 0.36 0.36 0.34 0.43 0.28 0.16 0.18 0.17 0.25 0.32 0.23 0.20 0.28 0.34 0.33 0.26 0.16 0.16 0.25 0.19 0.07 0.01 0.01 0.02 0.03 0.01 0.02 0.05 0.06 0.05 0.03 0.04 0.05 0.03 0.02
0.10 0.10 0.10 0.10 0.10 0.13 0.16 0.18 0.25 0.32 0.34 0.33 0.38 0.47 0.59 0.63 0.49 0.19 0.07 0.08 0.18 0.33 0.37 0.43 0.31 0.47 0.37 0.34 0.44 0.32 0.32 0.36 0.43 0.44 0.29 0.14 0.20 0.40 0.51 0.18 0.04 0.02 0.00 0.00 0.00 0.00 0.00 0.02 0.04 0.04 0.05 0.04 0.03 0.02
0.09 0.09 0.09 0.10 0.13 0.20 0.25 0.26 0.27 0.31 0.38 0.54 0.75 0.85 0.86 0.86 0.70 0.21 0.14 0.19 0.24 0.30 0.27 0.27 0.43 0.58 0.59 0.45 0.64 0.50 0.45 0.43 0.26 0.24 0.35 0.35 0.23 0.45 0.40 0.16 0.11 0.05 0.01 0.00 0.00 0.00 0.00 0.00 0.01 0.02 0.02 0.02 0.01 0.01
0.11 0.11 0.12 0.12 0.12 0.12 0.13 0.17 0.23 0.30 0.42 0.55 0.63 0.75 1.18 0.64 0.22 0.31 0.50 0.69 0.54 0.31 0.28 0.22 0.24 0.58 0.53 0.43 0.57 0.77 0.58 0.34 0.14 0.12 0.20 0.40 0.47 0.22 0.06 0.10 0.09 0.08 0.10 0.06 0.02 0.01 0.00 0.01 0.01 0.01 0.01 0.01 0.01 0.00
0.11 0.13 0.16 0.17 0.18 0.21 0.24 0.24 0.22 0.22 0.24 0.27 0.44 0.65 0.62 0.33 0.43 0.49 0.60 0.63 0.40 0.21 0.16 0.12 0.14 0.44 0.49 0.42 0.51 0.51 0.96 0.69 0.23 0.14 0.16 0.26 0.34 0.20 0.07 0.03 0.04 0.07 0.04 0.03 0.03 0.04 0.03 0.03 0.03 0.02 0.02 0.01 0.01 0.01
0.10 0.10 0.11 0.15 0.18 0.21 0.21 0.17 0.15 0.14 0.16 0.20 0.29 0.36 0.43 0.48 0.36 0.35 0.43 0.45 0.23 0.15 0.12 0.07 0.07 0.11 0.35 0.46 0.56 0.40 0.62 0.86 0.93 0.38 0.41 0.42 0.24 0.12 0.06 0.05 0.05 0.08 0.08 0.08 0.08 0.08 0.08 0.09 0.10 0.08 0.06 0.05 0.07 0.10
0.05 0.06 0.06 0.06 0.06 0.05 0.08 0.19 0.20 0.12 0.22 0.43 0.34 0.30 0.23 0.14 0.11 0.20 0.44 0.46 0.37 0.12 0.10 0.12 0.15 0.23 0.26 0.49 0.72 0.57 0.62 0.62 0.91 1.09 0.55 0.40 0.20 0.15 0.23 0.29 0.30 0.24 0.20 0.17 0.16 0.14 0.12 0.13 0.14 0.14 0.19 0.31 0.36 0.44
0.01 0.01 0.01 0.02 0.10 0.20 0.23 0.20 0.27 0.26 0.35 0.33 0.18 0.05 0.18 0.23 0.26 0.32 0.50 0.58 0.36 0.18 0.13 0.20 0.35 0.47 0.39 0.59 0.84 0.76 0.80 0.67 0.66 0.58 0.40 0.35 0.35 0.35 0.35 0.33 0.30 0.38 0.40 0.39 0.45 0.43 0.43 0.45 0.58 0.70 0.77 0.83 0.71 0.76
0.00 0.01 0.07 0.17 0.18 0.10 0.08 0.13 0.20 0.22 0.30 0.32 0.09 0.13 0.28 0.46 0.38 0.46 0.51 0.38 0.31 0.31 0.37 0.51 0.73 0.52 0.38 0.51 0.51 0.51 0.48 0.38 0.33 0.38 0.41 0.51 0.52 0.48 0.51 0.53 0.54 0.56 0.56 0.57 0.61 0.59 0.67 0.67 0.56 0.66 0.72 0.65 0.52 0.52
0.00 0.02 0.06 0.04 0.02 0.03 0.06 0.20 0.29 0.16 0.14 0.14 0.22 0.38 0.37 0.46 0.46 0.48 0.40 0.30 0.33 0.49 0.55 0.48 0.51 0.38 0.38 0.27 0.20 0.28 0.26 0.31 0.40 0.46 0.63 0.71 0.68 0.68 0.66 0.63 0.65 0.67 0.64 0.63 0.64 0.58 0.54 0.48 0.42 0.45 0.42 0.40 0.40 0.31
0.03 0.04 0.03 0.04 0.08 0.13 0.16 0.21 0.16 0.11 0.15 0.21 0.37 0.48 0.48 0.41 0.43 0.46 0.41 0.34 0.34 0.31 0.28 0.23 0.20 0.24 0.20 0.13 0.17 0.18 0.30 0.43 0.53 0.56 0.63 0.70 0.71 0.77 0.75 0.63 0.62 0.54 0.50 0.54 0.52 0.48 0.47 0.48 0.33 0.20 0.25 0.33 0.23 0.20
0.04 0.04 0.05 0.07 0.09 0.07 0.07 0.04 0.04 0.07 0.16 0.31 0.33 0.41 0.31 0.34 0.35 0.31 0.30 0.25 0.18 0.16 0.16 0.18 0.14 0.13 0.17 0.20 0.27 0.34 0.40 0.46 0.52 0.54 0.56 0.60 0.59 0.58 0.54 0.46 0.46 0.41 0.38 0.40 0.34 0.32 0.30 0.25 0.19 0.25 0.22 0.19 0.12 0.11
0.31 0.17 0.21 0.23 0.13 0.06 0.04 0.07 0.00 0.07 0.22 0.26 0.26 0.22 0.19 0.25 0.26 0.24 0.18 0.13 0.08 0.07 0.09 0.10 0.14 0.24 0.32 0.37 0.36 0.38 0.40 0.38 0.42 0.48 0.46 0.48 0.47 0.44 0.41 0.34 0.30 0.29 0.26 0.27 0.21 0.19 0.19 0.16 0.16 0.15 0.13 0.08 0.10 0.12
0.52 0.41 0.37 0.31 0.16 0.18 0.06 0.04 0.00 0.03 0.10 0.12 0.13 0.06 0.08 0.14 0.11 0.07 0.06 0.04 0.06 0.05 0.06 0.11 0.25 0.31 0.28 0.30 0.26 0.28 0.31 0.30 0.26 0.23 0.25 0.27 0.29 0.22 0.24 0.20 0.20 0.18 0.12 0.11 0.09 0.08 0.07 0.06 0.08 0.09 0.09 0.08 0.07 0.08
0.30 0.25 0.18 0.10 0.04 0.05 0.04 0.04 0.04 0.03 0.06 0.11 0.06 0.01 0.02 0.00 0.00 0.00 0.00 0.00 0.01 0.04 0.17 0.25 0.23 0.28 0.20 0.21 0.17 0.15 0.19 0.16 0.15 0.11 0.16 0.18 0.20 0.11 0.10 0.10 0.08 0.06 0.05 0.06 0.05 0.06 0.04 0.05 0.06 0.04 0.04 0.03 0.03 0.03
0.08 0.03 0.01 0.00 0.00 0.00 0.00 0.00 0.02 0.03 0.01 0.02 0.03 0.01 0.00 0.00 0.00 0.00 0.00 0.01 0.14 0.22 0.24 0.18 0.18 0.15 0.12 0.14 0.13 0.08 0.10 0.06 0.05 0.05 0.06 0.06 0.05 0.03 0.04 0.04 0.02 0.02 0.02 0.02 0.02 0.02 0.02 0.02 0.01 0.01 0.01 0.02 0.01 0.00
0.00 0.00 0.00 0.00 0.00 0.00 0.00 0.00 0.00 0.00 0.00 0.00 0.00 0.00 0.00 0.00 0.00 0.00 0.01 0.08 0.24 0.25 0.15 0.09 0.09 0.04 0.04 0.06 0.02 0.01 0.00 0.00 0.00 0.00 0.00 0.00 0.00 0.00 0.00 0.00 0.00 0.00 0.01 0.01 0.00 0.00 0.00 0.00 0.00 0.00 0.00 0.00 0.00 0.00
0.00 0.00 0.00 0.00 0.00 0.00 0.00 0.00 0.00 0.00 0.00 0.00 0.00 0.02 0.01 0.00 0.00 0.00 0.03 0.10 0.20 0.15 0.08 0.08 0.03 0.01 0.00 0.00 0.00 0.01 0.00 0.00 0.00 0.00 0.00 0.00 0.00 0.00 0.00 0.00 0.00 0.00 0.00 0.00 0.00 0.00 0.00 0.00 0.00 0.00 0.00 0.00 0.00 0.00
0.00 0.00 0.00 0.00 0.00 0.00 0.00 0.00 0.00 0.00 0.00 0.00 0.00 0.02 0.01 0.00 0.00 0.01 0.02 0.11 0.11 0.09 0.06 0.03 0.01 0.01 0.00 0.01 0.00 0.00 0.00 0.00 0.00 0.00 0.00 0.00 0.00 0.00 0.00 0.00 0.00 0.00 0.00 0.00 0.00 0.00 0.00 0.00 0.00 0.00 0.00 0.00 0.00 0.00
0.01 0.01 0.00 0.01 0.00 0.00 0.00 0.00 0.00 0.00 0.00 0.01 0.02 0.01 0.00 0.00 0.00 0.03 0.06 0.08 0.06 0.06 0.07 0.06 0.02 0.01 0.00 0.00 0.00 0.00 0.00 0.00 0.00 0.00 0.00 0.00 0.00 0.00 0.00 0.00 0.00 0.01 0.01 0.01 0.00 0.01 0.00 0.00 0.00 0.00 0.00 0.00 0.00 0.00
0.00 0.01 0.01 0.01 0.01 0.00 0.00 0.00 0.00 0.00 0.01 0.02 0.01 0.01 0.00 0.00 0.02 0.06 0.10 0.07 0.03 0.04 0.02 0.02 0.01 0.00 0.00 0.00 0.00 0.00 0.00 0.00 0.00 0.00 0.00 0.00 0.00 0.00 0.00 0.00 0.00 0.01 0.01 0.00 0.00 0.00 0.01 0.01 0.01 0.00 0.00 0.00 0.01 0.01
0.00 0.00 0.00 0.00 0.00 0.00 0.00 0.00 0.00 0.01 0.02 0.02 0.00 0.00 0.01 0.01 0.05 0.09 0.06 0.05 0.02 0.01 0.00 0.00 0.00 0.00 0.01 0.01 0.01 0.01 0.01 0.00 0.00 0.00 0.00 0.01 0.00 0.00 0.00 0.01 0.00 0.01 0.00 0.00 0.00 0.01 0.01 0.01 0.00 0.00 0.00 0.00 0.00 0.01
0.00 0.00 0.00 0.00 0.00 0.00 0.02 0.02 0.02 0.02 0.03 0.02 0.00 0.02 0.03 0.06 0.08 0.07 0.07 0.04 0.02 0.01 0.01 0.01 0.01 0.00 0.00 0.00 0.00 0.00 0.00 0.00 0.00 0.00 0.00 0.01 0.02 0.01 0.01 0.00 0.01 0.00 0.01 0.01 0.01 0.01 0.01 0.01 0.01 0.00 0.00 0.00 0.01 0.01
0.00 0.00 0.00 0.00 0.01 0.02 0.06 0.03 0.03 0.02 0.01 0.00 0.01 0.03 0.04 0.11 0.16 0.08 0.06 0.05 0.03 0.02 0.01 0.01 0.02 0.02 0.01 0.01 0.01 0.00 0.00 0.00 0.00 0.00 0.01 0.01 0.01 0.01 0.01 0.01 0.01 0.01 0.01 0.00 0.00 0.00 0.01 0.01 0.00 0.00 0.00 0.00 0.00 0.00
0.00 0.00 0.00 0.00 0.02 0.03 0.02 0.01 0.01 0.00 0.00 0.01 0.00 0.00 0.03 0.07 0.07 0.07 0.04 0.02 0.01 0.00 0.01 0.01 0.01 0.01 0.01 0.00 0.00 0.00 0.01 0.00 0.00 0.00 0.00 0.00 0.01 0.01 0.01 0.01 0.01 0.01 0.01 0.01 0.00 0.00 0.00 0.00 0.01 0.00 0.00 0.00 0.00 0.00
0.00 0.00 0.00 0.01 0.05 0.04 0.05 0.07 0.02 0.01 0.01 0.01 0.01 0.01 0.02 0.01 0.02 0.02 0.03 0.03 0.02 0.02 0.01 0.01 0.02 0.01 0.00 0.00 0.00 0.00 0.00 0.00 0.00 0.00 0.00 0.00 0.01 0.01 0.01 0.00 0.01 0.01 0.01 0.00 0.00 0.00 0.00 0.00 0.00 0.00 0.00 0.00 0.00 0.00
0.00 0.00 0.00 0.00 0.02 0.03 0.03 0.03 0.01 0.01 0.01 0.01 0.02 0.02 0.02 0.01 0.02 0.03 0.02 0.02 0.04 0.02 0.01 0.01 0.01 0.00 0.00 0.00 0.00 0.00 0.00 0.00 0.00 0.00 0.00 0.00 0.00 0.00 0.00 0.00 0.01 0.00 0.00 0.00 0.00 0.00 0.00 0.00 0.00 0.00 0.00 0.00 0.00 0.00

GFSWCAN_prec_precacc24_066.txt.gz
Total_Precipitation_Accumulation
0.14 0.12 0.11 0.10 0.09 0.09 0.10 0.15 0.14 0.16 0.17 0.18 0.23 0.24 0.24 0.45 0.71 1.16 1.96 0.76 1.01 1.39 0.36 0.10 0.08 0.09 0.04 0.05 0.10 0.04 0.19 0.14 0.26 0.26 0.08 0.03 0.01 0.00 0.01 0.05 0.15 0.19 0.19 0.21 0.28 0.29 0.10 0.01 0.03 0.04 0.02 0.00 0.00 0.00
0.17 0.19 0.16 0.13 0.11 0.12 0.13 0.14 0.14 0.19 0.20 0.16 0.15 0.21 0.24 0.37 0.70 0.96 1.56 0.85 0.68 1.08 0.74 0.18 0.11 0.12 0.07 0.01 0.04 0.05 0.07 0.04 0.07 0.21 0.09 0.05 0.02 0.02 0.00 0.00 0.01 0.08 0.13 0.17 0.16 0.16 0.07 0.04 0.06 0.10 0.08 0.04 0.01 0.01
0.28 0.24 0.22 0.15 0.11 0.15 0.15 0.13 0.13 0.16 0.20 0.17 0.14 0.15 0.31 0.45 0.62 0.97 1.00 0.64 1.19 1.56 0.79 0.46 0.19 0.06 0.10 0.05 0.03 0.15 0.06 0.02 0.02 0.03 0.06 0.09 0.07 0.02 0.01 0.00 0.00 0.00 0.00 0.02 0.03 0.01 0.00 0.03 0.04 0.02 0.01 0.01 0.02 0.02
0.30 0.22 0.10 0.05 0.07 0.17 0.13 0.10 0.10 0.15 0.20 0.20 0.14 0.18 0.33 0.66 0.64 0.85 0.66 0.56 0.87 0.78 0.58 0.40 0.25 0.09 0.07 0.15 0.10 0.09 0.08 0.06 0.08 0.16 0.15 0.16 0.13 0.03 0.01 0.02 0.00 0.00 0.02 0.02 0.01 0.00 0.00 0.02 0.02 0.02 0.01 0.00 0.00 0.01
0.16 0.07 0.04 0.11 0.14 0.19 0.21 0.18 0.17 0.16 0.23 0.22 0.21 0.31 0.54 0.70 0.89 0.89 0.42 0.37 0.43 0.40 0.31 0.18 0.20 0.12 0.05 0.11 0.13 0.10 0.12 0.20 0.23 0.32 0.32 0.15 0.06 0.04 0.02 0.04 0.02 0.02 0.04 0.05 0.01 0.03 0.03 0.00 0.01 0.03 0.01 0.00 0.00 0.00
0.12 0.07 0.08 0.16 0.15 0.21 0.17 0.21 0.28 0.30 0.21 0.29 0.39 0.51 0.53 0.64 1.40 1.35 1.42 1.08 0.54 0.40 0.37 0.18 0.14 0.06 0.08 0.07 0.09 0.07 0.15 0.26 0.28 0.26 0.24 0.25 0.13 0.19 0.11 0.03 0.01 0.02 0.05 0.07 0.03 0.03 0.04 0.03 0.02 0.02 0.01 0.01 0.02 0.01
0.12 0.13 0.10 0.14 0.15 0.16 0.17 0.20 0.19 0.24 0.40 0.46 0.47 0.41 0.50 1.10 1.35 0.45 0.47 0.41 0.39 0.33 0.43 0.29 0.11 0.14 0.12 0.10 0.16 0.16 0.20 0.36 0.44 0.41 0.26 0.15 0.18 0.31 0.21 0.07 0.02 0.01 0.02 0.02 0.01 0.02 0.05 0.06 0.05 0.03 0.04 0.05 0.04 0.03
0.13 0.10 0.11 0.13 0.16 0.14 0.16 0.22 0.28 0.35 0.41 0.37 0.47 0.58 0.88 0.93 0.63 0.25 0.04 0.05 0.18 0.34 0.34 0.36 0.19 0.32 0.30 0.23 0.29 0.22 0.29 0.35 0.58 0.62 0.39 0.15 0.22 0.45 0.56 0.19 0.04 0.02 0.01 0.01 0.00 0.00 0.00 0.02 0.04 0.04 0.05 0.07 0.12 0.14
0.10 0.10 0.11 0.11 0.15 0.24 0.30 0.31 0.32 0.42 0.49 0.72 1.00 1.30 1.44 1.17 1.05 0.26 0.10 0.17 0.23 0.32 0.28 0.25 0.24 0.31 0.49 0.35 0.42 0.34 0.35 0.45 0.34 0.38 0.49 0.45 0.31 0.50 0.44 0.17 0.11 0.05 0.01 0.00 0.00 0.00 0.00 0.00 0.01 0.02 0.02 0.03 0.04 0.06
0.14 0.16 0.18 0.20 0.18 0.19 0.23 0.30 0.44 0.57 0.72 0.86 0.89 1.11 1.64 0.99 0.29 0.34 0.64 0.74 0.58 0.31 0.24 0.20 0.18 0.27 0.53 0.41 0.46 0.42 0.40 0.29 0.18 0.16 0.25 0.52 0.60 0.27 0.07 0.10 0.09 0.09 0.10 0.06 0.02 0.01 0.01 0.02 0.02 0.02 0.03 0.03 0.04 0.05
0.14 0.16 0.19 0.25 0.29 0.34 0.38 0.40 0.40 0.36 0.32 0.32 0.49 0.92 1.08 0.50 0.43 0.53 0.47 0.40 0.28 0.17 0.16 0.15 0.16 0.18 0.43 0.43 0.51 0.32 0.67 0.47 0.19 0.17 0.19 0.30 0.37 0.22 0.08 0.03 0.04 0.07 0.04 0.03 0.04 0.05 0.05 0.06 0.06 0.07 0.09 0.11 0.11 0.11
0.08 0.15 0.18 0.20 0.23 0.27 0.29 0.26 0.17 0.11 0.15 0.13 0.31 0.60 0.65 0.58 0.38 0.13 0.13 0.25 0.14 0.24 0.27 0.17 0.16 0.18 0.49 0.50 0.60 0.33 0.59 0.73 0.90 0.41 0.43 0.43 0.24 0.05 0.02 0.04 0.04 0.05 0.05 0.06 0.07 0.07 0.08 0.09 0.10 0.09 0.10 0.10 0.11 0.12
0.06 0.12 0.17 0.18 0.15 0.11 0.10 0.09 0.08 0.07 0.10 0.13 0.14 0.24 0.22 0.08 0.06 0.07 0.15 0.24 0.26 0.20 0.19 0.21 0.19 0.38 0.38 0.52 0.59 0.35 0.47 0.49 0.81 0.98 0.47 0.34 0.16 0.07 0.06 0.05 0.06 0.07 0.06 0.07 0.09 0.11 0.10 0.13 0.13 0.14 0.16 0.21 0.18 0.22
0.01 0.01 0.02 0.04 0.06 0.04 0.03 0.06 0.09 0.05 0.06 0.03 0.02 0.01 0.07 0.05 0.10 0.13 0.20 0.30 0.24 0.20 0.21 0.19 0.25 0.47 0.36 0.41 0.46 0.38 0.48 0.44 0.43 0.42 0.27 0.21 0.22 0.21 0.17 0.16 0.14 0.20 0.21 0.21 0.26 0.25 0.26 0.28 0.37 0.46 0.53 0.61 0.52 0.62
0.00 0.01 0.06 0.14 0.11 0.02 0.00 0.01 0.00 0.00 0.00 0.02 0.00 0.04 0.09 0.23 0.14 0.13 0.15 0.14 0.17 0.24 0.32 0.32 0.48 0.38 0.31 0.35 0.27 0.26 0.22 0.19 0.18 0.23 0.26 0.31 0.30 0.27 0.30 0.34 0.39 0.46 0.48 0.48 0.48 0.42 0.48 0.50 0.42 0.53 0.62 0.58 0.47 0.49
0.00 0.01 0.05 0.04 0.00 0.00 0.00 0.01 0.02 0.00 0.01 0.03 0.07 0.16 0.14 0.15 0.13 0.13 0.15 0.15 0.19 0.33 0.39 0.27 0.35 0.30 0.30 0.19 0.14 0.16 0.13 0.16 0.21 0.24 0.40 0.46 0.44 0.47 0.48 0.48 0.51 0.55 0.53 0.53 0.53 0.48 0.46 0.42 0.38 0.43 0.41 0.39 0.39 0.32
0.00 0.01 0.00 0.00 0.00 0.00 0.00 0.01 0.05 0.02 0.03 0.10 0.19 0.26 0.24 0.21 0.26 0.31 0.28 0.26 0.29 0.27 0.24 0.21 0.18 0.21 0.17 0.11 0.14 0.14 0.22 0.29 0.33 0.32 0.38 0.46 0.50 0.57 0.56 0.50 0.53 0.50 0.47 0.48 0.46 0.42 0.43 0.44 0.32 0.22 0.26 0.35 0.25 0.22
0.01 0.01 0.00 0.01 0.02 0.00 0.00 0.01 0.03 0.04 0.10 0.20 0.25 0.30 0.25 0.30 0.31 0.30 0.29 0.24 0.17 0.14 0.15 0.17 0.13 0.12 0.17 0.19 0.24 0.31 0.34 0.36 0.36 0.37 0.41 0.45 0.42 0.41 0.39 0.36 0.39 0.35 0.32 0.33 0.29 0.27 0.25 0.21 0.16 0.21 0.18 0.17 0.10 0.09
0.04 0.03 0.02 0.04 0.01 0.00 0.02 0.04 0.00 0.05 0.15 0.19 0.21 0.20 0.20 0.27 0.30 0.27 0.21 0.15 0.09 0.07 0.09 0.11 0.14 0.24 0.30 0.34 0.31 0.34 0.34 0.29 0.31 0.35 0.34 0.36 0.34 0.32 0.30 0.26 0.23 0.21 0.19 0.20 0.16 0.13 0.11 0.08 0.09 0.08 0.07 0.04 0.06 0.08
0.12 0.10 0.09 0.05 0.01 0.00 0.02 0.03 0.00 0.02 0.07 0.11 0.13 0.07 0.09 0.16 0.13 0.08 0.07 0.05 0.06 0.05 0.06 0.10 0.23 0.27 0.22 0.23 0.15 0.17 0.19 0.18 0.13 0.13 0.17 0.19 0.19 0.14 0.16 0.13 0.13 0.10 0.05 0.03 0.02 0.01 0.00 0.01 0.01 0.01 0.01 0.01 0.01 0.03
0.13 0.08 0.04 0.00 0.00 0.01 0.02 0.03 0.02 0.02 0.05 0.10 0.06 0.02 0.04 0.01 0.01 0.01 0.00 0.00 0.01 0.04 0.15 0.20 0.18 0.23 0.13 0.13 0.09 0.05 0.08 0.06 0.07 0.06 0.09 0.12 0.13 0.06 0.05 0.03 0.02 0.01 0.00 0.01 0.00 0.01 0.01 0.01 0.01 0.00 0.01 0.01 0.01 0.01
0.04 0.02 0.00 0.00 0.00 0.00 0.00 0.00 0.02 0.03 0.01 0.03 0.04 0.01 0.00 0.00 0.00 0.00 0.00 0.01 0.13 0.19 0.19 0.15 0.14 0.10 0.07 0.09 0.08 0.04 0.05 0.03 0.02 0.03 0.03 0.03 0.02 0.01 0.01 0.00 0.00 0.00 0.00 0.00 0.00 0.00 0.00 0.00 0.00 0.00 0.00 0.01 0.00 0.00
0.00 0.00 0.00 0.00 0.00 0.00 0.02 0.02 0.01 0.01 0.00 0.01 0.00 0.00 0.00 0.00 0.00 0.00 0.01 0.07 0.24 0.23 0.11 0.06 0.06 0.03 0.03 0.04 0.01 0.01 0.00 0.00 0.00 0.00 0.00 0.00 0.00 0.00 0.00 0.00 0.00 0.00 0.00 0.00 0.00 0.00 0.00 0.00 0.00 0.00 0.00 0.00 0.00 0.00
0.00 0.00 0.00 0.00 0.00 0.00 0.00 0.00 0.00 0.00 0.00 0.00 0.00 0.01 0.01 0.00 0.00 0.00 0.03 0.09 0.17 0.14 0.07 0.06 0.02 0.01 0.00 0.00 0.00 0.00 0.00 0.00 0.00 0.00 0.00 0.00 0.00 0.00 0.00 0.00 0.00 0.00 0.00 0.00 0.00 0.00 0.00 0.00 0.00 0.00 0.00 0.00 0.00 0.00
0.00 0.00 0.00 0.00 0.00 0.00 0.00 0.00 0.00 0.00 0.00 0.00 0.00 0.01 0.00 0.00 0.00 0.00 0.02 0.09 0.09 0.08 0.05 0.02 0.01 0.01 0.00 0.01 0.00 0.00 0.00 0.00 0.00 0.00 0.00 0.00 0.00 0.00 0.00 0.00 0.00 0.00 0.00 0.00 0.00 0.00 0.00 0.00 0.00 0.00 0.00 0.00 0.00 0.00
0.01 0.01 0.00 0.01 0.00 0.00 0.00 0.00 0.00 0.00 0.00 0.01 0.01 0.01 0.00 0.00 0.00 0.03 0.05 0.07 0.04 0.05 0.05 0.05 0.02 0.00 0.00 0.00 0.00 0.00 0.00 0.00 0.00 0.00 0.00 0.00 0.00 0.00 0.00 0.00 0.00 0.00 0.00 0.00 0.00 0.01 0.00 0.00 0.00 0.00 0.00 0.00 0.00 0.00
0.01 0.01 0.01 0.01 0.00 0.00 0.00 0.00 0.00 0.00 0.01 0.02 0.01 0.00 0.00 0.00 0.01 0.05 0.09 0.05 0.02 0.03 0.01 0.02 0.01 0.00 0.00 0.00 0.00 0.00 0.00 0.00 0.00 0.00 0.00 0.00 0.00 0.00 0.00 0.00 0.00 0.00 0.00 0.00 0.00 0.00 0.00 0.01 0.01 0.00 0.00 0.00 0.01 0.01
0.00 0.00 0.00 0.00 0.00 0.00 0.00 0.00 0.00 0.01 0.02 0.01 0.00 0.00 0.00 0.01 0.05 0.09 0.06 0.05 0.02 0.01 0.00 0.00 0.00 0.00 0.00 0.01 0.01 0.01 0.00 0.00 0.00 0.00 0.00 0.01 0.00 0.00 0.00 0.00 0.00 0.01 0.00 0.01 0.00 0.01 0.01 0.00 0.00 0.00 0.00 0.00 0.00 0.01
0.00 0.00 0.00 0.00 0.00 0.00 0.01 0.01 0.02 0.02 0.02 0.02 0.00 0.02 0.03 0.06 0.09 0.07 0.07 0.03 0.01 0.01 0.01 0.01 0.01 0.00 0.00 0.00 0.00 0.00 0.00 0.00 0.00 0.00 0.00 0.01 0.02 0.01 0.01 0.00 0.00 0.00 0.01 0.01 0.01 0.01 0.02 0.01 0.01 0.00 0.00 0.01 0.01 0.01
0.00 0.00 0.00 0.00 0.01 0.02 0.07 0.04 0.04 0.03 0.01 0.00 0.01 0.03 0.04 0.12 0.18 0.09 0.06 0.05 0.03 0.02 0.01 0.01 0.02 0.02 0.01 0.01 0.01 0.00 0.00 0.00 0.00 0.00 0.01 0.01 0.00 0.01 0.01 0.01 0.01 0.01 0.01 0.01 0.00 0.00 0.01 0.01 0.01 0.00 0.01 0.01 0.01 0.00
0.00 0.00 0.00 0.00 0.03 0.04 0.04 0.02 0.01 0.00 0.00 0.01 0.00 0.01 0.04 0.08 0.08 0.08 0.05 0.02 0.01 0.00 0.01 0.01 0.01 0.01 0.01 0.00 0.00 0.00 0.01 0.00 0.00 0.00 0.00 0.00 0.01 0.01 0.01 0.01 0.01 0.01 0.01 0.01 0.00 0.00 0.00 0.00 0.01 0.00 0.00 0.00 0.00 0.00
0.00 0.00 0.00 0.01 0.04 0.04 0.05 0.06 0.02 0.01 0.01 0.01 0.01 0.01 0.01 0.01 0.02 0.03 0.04 0.03 0.02 0.02 0.01 0.01 0.02 0.01 0.00 0.00 0.00 0.00 0.00 0.00 0.00 0.00 0.00 0.00 0.01 0.00 0.00 0.00 0.00 0.01 0.01 0.00 0.00 0.00 0.00 0.00 0.00 0.00 0.00 0.00 0.00 0.00
0.00 0.00 0.00 0.00 0.01 0.02 0.02 0.02 0.00 0.01 0.01 0.01 0.02 0.02 0.02 0.01 0.02 0.03 0.03 0.02 0.05 0.03 0.01 0.01 0.01 0.00 0.00 0.00 0.00 0.00 0.00 0.00 0.00 0.00 0.00 0.00 0.00 0.00 0.00 0.00 0.00 0.00 0.00 0.00 0.00 0.00 0.00 0.00 0.00 0.00 0.00 0.00 0.00 0.00

GFSWCAN_prec_precacc24_072.txt.gz
Total_Precipitation_Accumulation
0.10 0.10 0.12 0.11 0.10 0.10 0.11 0.11 0.11 0.11 0.11 0.14 0.25 0.29 0.28 0.36 0.43 0.91 1.51 0.69 1.02 1.37 0.31 0.05 0.06 0.07 0.07 0.13 0.22 0.24 0.26 0.15 0.14 0.20 0.14 0.11 0.10 0.07 0.04 0.14 0.16 0.14 0.15 0.20 0.25 0.27 0.12 0.02 0.05 0.07 0.04 0.01 0.00 0.00
0.15 0.19 0.17 0.15 0.12 0.10 0.10 0.10 0.10 0.11 0.13 0.14 0.14 0.20 0.30 0.34 0.50 0.82 1.40 0.75 0.65 1.05 0.63 0.14 0.05 0.04 0.06 0.11 0.22 0.36 0.18 0.16 0.10 0.23 0.19 0.17 0.09 0.06 0.04 0.08 0.06 0.11 0.10 0.14 0.16 0.17 0.11 0.06 0.08 0.10 0.09 0.05 0.01 0.01
0.28 0.28 0.27 0.18 0.12 0.11 0.11 0.10 0.10 0.11 0.14 0.14 0.17 0.16 0.26 0.39 0.51 0.94 0.99 0.54 1.01 1.59 0.83 0.42 0.17 0.03 0.04 0.04 0.12 0.24 0.09 0.08 0.16 0.14 0.21 0.21 0.15 0.07 0.05 0.06 0.08 0.03 0.01 0.07 0.09 0.09 0.09 0.06 0.04 0.02 0.01 0.01 0.02 0.02
0.35 0.27 0.13 0.06 0.05 0.08 0.07 0.06 0.07 0.11 0.14 0.15 0.14 0.21 0.27 0.45 0.60 0.95 0.78 0.56 0.78 0.84 0.59 0.32 0.19 0.08 0.04 0.10 0.12 0.11 0.10 0.10 0.16 0.25 0.27 0.24 0.19 0.08 0.10 0.07 0.04 0.03 0.03 0.03 0.05 0.10 0.18 0.06 0.01 0.01 0.01 0.00 0.00 0.01
0.17 0.09 0.04 0.08 0.10 0.16 0.19 0.18 0.17 0.12 0.16 0.18 0.16 0.23 0.35 0.50 0.89 1.09 0.59 0.36 0.40 0.42 0.38 0.19 0.17 0.11 0.04 0.04 0.10 0.16 0.16 0.19 0.26 0.31 0.34 0.20 0.14 0.09 0.05 0.06 0.07 0.06 0.09 0.09 0.09 0.07 0.14 0.05 0.01 0.02 0.01 0.00 0.00 0.00
0.09 0.06 0.07 0.15 0.13 0.20 0.16 0.19 0.25 0.26 0.16 0.24 0.25 0.24 0.42 0.62 1.49 1.65 1.74 1.22 0.56 0.47 0.50 0.31 0.18 0.06 0.07 0.05 0.07 0.13 0.23 0.30 0.34 0.31 0.24 0.31 0.18 0.28 0.19 0.13 0.17 0.04 0.06 0.08 0.04 0.03 0.04 0.03 0.02 0.02 0.01 0.01 0.02 0.01
0.07 0.07 0.07 0.13 0.13 0.14 0.14 0.14 0.13 0.17 0.29 0.30 0.28 0.31 0.55 1.11 1.48 0.53 0.51 0.49 0.45 0.46 0.64 0.39 0.14 0.13 0.11 0.10 0.17 0.19 0.25 0.43 0.36 0.34 0.23 0.18 0.24 0.37 0.28 0.21 0.16 0.03 0.02 0.02 0.01 0.02 0.05 0.06 0.05 0.03 0.04 0.05 0.04 0.03
0.10 0.06 0.05 0.08 0.10 0.08 0.10 0.15 0.20 0.26 0.32 0.31 0.41 0.55 0.88 0.92 0.70 0.31 0.05 0.06 0.20 0.49 0.50 0.46 0.24 0.26 0.22 0.17 0.20 0.22 0.32 0.37 0.59 0.55 0.34 0.15 0.25 0.48 0.62 0.20 0.04 0.02 0.01 0.01 0.00 0.00 0.00 0.02 0.04 0.04 0.05 0.07 0.12 0.14
0.09 0.08 0.08 0.07 0.09 0.18 0.25 0.26 0.26 0.34 0.44 0.65 0.98 1.45 1.71 1.35 1.14 0.35 0.15 0.20 0.27 0.42 0.36 0.31 0.29 0.24 0.31 0.16 0.18 0.23 0.27 0.45 0.30 0.37 0.47 0.46 0.31 0.58 0.49 0.17 0.11 0.05 0.01 0.00 0.00 0.00 0.00 0.00 0.01 0.02 0.02 0.03 0.04 0.06
0.12 0.14 0.17 0.19 0.19 0.19 0.23 0.32 0.47 0.67 0.88 1.16 1.39 1.64 1.96 1.10 0.32 0.38 0.83 0.95 0.80 0.36 0.19 0.22 0.30 0.19 0.33 0.14 0.18 0.31 0.23 0.15 0.20 0.11 0.18 0.47 0.57 0.25 0.07 0.09 0.09 0.09 0.10 0.06 0.02 0.01 0.01 0.02 0.02 0.03 0.03 0.03 0.04 0.05
0.13 0.16 0.20 0.25 0.30 0.37 0.49 0.53 0.61 0.59 0.50 0.60 0.93 1.19 1.18 0.57 0.39 0.49 0.66 0.54 0.37 0.22 0.16 0.17 0.20 0.14 0.28 0.14 0.09 0.16 0.50 0.22 0.14 0.15 0.12 0.29 0.33 0.21 0.07 0.02 0.04 0.07 0.04 0.03 0.04 0.05 0.06 0.06 0.06 0.07 0.09 0.11 0.12 0.12
0.11 0.20 0.24 0.29 0.33 0.39 0.43 0.49 0.37 0.19 0.25 0.21 0.42 0.71 0.80 0.62 0.36 0.17 0.18 0.19 0.15 0.24 0.23 0.15 0.15 0.16 0.23 0.18 0.10 0.11 0.34 0.59 0.69 0.34 0.23 0.27 0.18 0.04 0.02 0.04 0.04 0.05 0.05 0.06 0.07 0.08 0.08 0.10 0.11 0.10 0.10 0.12 0.13 0.14
0.09 0.15 0.23 0.27 0.28 0.27 0.28 0.21 0.10 0.07 0.05 0.04 0.06 0.26 0.25 0.12 0.09 0.11 0.10 0.12 0.16 0.18 0.17 0.17 0.11 0.19 0.17 0.12 0.15 0.16 0.28 0.33 0.50 0.70 0.30 0.22 0.13 0.05 0.05 0.05 0.06 0.07 0.06 0.07 0.10 0.11 0.11 0.13 0.14 0.14 0.17 0.21 0.17 0.17
0.01 0.01 0.02 0.06 0.08 0.05 0.02 0.03 0.04 0.03 0.02 0.02 0.01 0.01 0.01 0.02 0.07 0.10 0.16 0.17 0.14 0.17 0.19 0.14 0.09 0.23 0.24 0.27 0.32 0.34 0.39 0.31 0.24 0.24 0.19 0.18 0.15 0.13 0.11 0.10 0.08 0.13 0.13 0.14 0.18 0.17 0.19 0.19 0.22 0.23 0.25 0.30 0.21 0.25
0.00 0.00 0.00 0.01 0.00 0.00 0.00 0.00 0.00 0.00 0.00 0.00 0.00 0.03 0.04 0.14 0.10 0.10 0.13 0.15 0.17 0.25 0.32 0.29 0.29 0.31 0.28 0.28 0.20 0.21 0.18 0.15 0.15 0.17 0.21 0.22 0.18 0.15 0.18 0.20 0.22 0.25 0.26 0.26 0.29 0.25 0.28 0.27 0.19 0.27 0.33 0.30 0.24 0.27
0.00 0.00 0.00 0.00 0.00 0.00 0.00 0.00 0.00 0.00 0.00 0.00 0.03 0.07 0.05 0.09 0.09 0.09 0.13 0.16 0.20 0.28 0.24 0.15 0.24 0.22 0.17 0.13 0.08 0.10 0.11 0.13 0.17 0.18 0.29 0.30 0.30 0.31 0.32 0.32 0.34 0.36 0.34 0.34 0.34 0.31 0.30 0.28 0.25 0.29 0.28 0.25 0.26 0.21
0.00 0.00 0.00 0.00 0.00 0.00 0.00 0.00 0.01 0.01 0.00 0.02 0.06 0.08 0.07 0.08 0.11 0.16 0.18 0.18 0.17 0.12 0.06 0.04 0.06 0.13 0.09 0.04 0.06 0.07 0.14 0.21 0.25 0.24 0.25 0.28 0.30 0.35 0.37 0.33 0.35 0.34 0.31 0.32 0.31 0.29 0.29 0.29 0.22 0.16 0.18 0.24 0.16 0.12
0.01 0.00 0.00 0.01 0.02 0.00 0.00 0.00 0.00 0.00 0.02 0.07 0.10 0.15 0.08 0.11 0.13 0.16 0.16 0.12 0.06 0.02 0.03 0.06 0.05 0.07 0.11 0.12 0.14 0.19 0.21 0.23 0.24 0.23 0.25 0.28 0.25 0.24 0.23 0.22 0.24 0.22 0.20 0.20 0.18 0.16 0.16 0.14 0.10 0.11 0.09 0.08 0.04 0.04
0.02 0.01 0.01 0.03 0.01 0.00 0.00 0.00 0.00 0.01 0.07 0.10 0.11 0.10 0.10 0.14 0.18 0.19 0.13 0.09 0.04 0.01 0.04 0.07 0.09 0.17 0.24 0.28 0.23 0.27 0.25 0.20 0.22 0.24 0.24 0.24 0.22 0.20 0.19 0.17 0.15 0.15 0.13 0.14 0.10 0.08 0.06 0.04 0.04 0.03 0.03 0.01 0.03 0.03
0.03 0.00 0.00 0.01 0.00 0.00 0.00 0.00 0.00 0.01 0.06 0.11 0.12 0.07 0.08 0.16 0.13 0.08 0.06 0.04 0.05 0.04 0.06 0.10 0.21 0.25 0.19 0.21 0.12 0.13 0.12 0.10 0.07 0.07 0.12 0.13 0.13 0.10 0.11 0.10 0.09 0.07 0.04 0.02 0.00 0.00 0.00 0.00 0.00 0.00 0.00 0.00 0.00 0.02
0.00 0.00 0.00 0.00 0.00 0.00 0.00 0.00 0.01 0.02 0.05 0.10 0.06 0.02 0.05 0.02 0.01 0.01 0.01 0.00 0.01 0.04 0.13 0.18 0.16 0.21 0.10 0.10 0.06 0.03 0.07 0.05 0.06 0.04 0.06 0.09 0.09 0.05 0.03 0.02 0.01 0.00 0.00 0.00 0.00 0.00 0.00 0.01 0.01 0.00 0.00 0.01 0.01 0.01
0.00 0.00 0.00 0.00 0.00 0.00 0.00 0.00 0.01 0.02 0.01 0.03 0.04 0.01 0.01 0.01 0.00 0.00 0.00 0.01 0.11 0.17 0.17 0.13 0.12 0.08 0.06 0.08 0.07 0.03 0.03 0.02 0.01 0.02 0.02 0.02 0.02 0.01 0.01 0.00 0.00 0.00 0.00 0.00 0.00 0.00 0.01 0.00 0.00 0.00 0.01 0.01 0.00 0.00
0.00 0.00 0.00 0.00 0.00 0.00 0.03 0.03 0.01 0.02 0.01 0.01 0.00 0.00 0.00 0.00 0.00 0.00 0.01 0.07 0.22 0.20 0.09 0.05 0.05 0.02 0.03 0.04 0.01 0.01 0.00 0.00 0.00 0.00 0.00 0.00 0.00 0.00 0.00 0.00 0.00 0.00 0.00 0.00 0.00 0.00 0.01 0.00 0.00 0.00 0.00 0.00 0.00 0.00
0.00 0.00 0.00 0.00 0.00 0.01 0.00 0.00 0.00 0.00 0.00 0.00 0.00 0.01 0.01 0.00 0.00 0.00 0.03 0.08 0.16 0.13 0.07 0.05 0.01 0.00 0.00 0.00 0.00 0.00 0.00 0.00 0.00 0.00 0.00 0.00 0.00 0.00 0.00 0.00 0.00 0.00 0.00 0.00 0.00 0.00 0.00 0.01 0.00 0.00 0.00 0.00 0.00 0.00
0.00 0.00 0.00 0.00 0.00 0.00 0.00 0.00 0.00 0.00 0.00 0.00 0.00 0.01 0.00 0.00 0.00 0.00 0.02 0.08 0.09 0.08 0.04 0.02 0.01 0.01 0.00 0.01 0.00 0.00 0.00 0.00 0.00 0.00 0.00 0.00 0.00 0.00 0.00 0.00 0.00 0.00 0.00 0.00 0.01 0.00 0.00 0.00 0.00 0.00 0.00 0.00 0.00 0.00
0.00 0.01 0.00 0.01 0.00 0.00 0.00 0.00 0.00 0.00 0.00 0.00 0.01 0.00 0.00 0.00 0.00 0.02 0.05 0.06 0.04 0.04 0.05 0.03 0.01 0.00 0.00 0.00 0.00 0.00 0.00 0.00 0.00 0.00 0.00 0.00 0.00 0.00 0.00 0.00 0.00 0.01 0.00 0.00 0.01 0.01 0.01 0.00 0.00 0.00 0.00 0.00 0.00 0.00
0.01 0.01 0.00 0.00 0.00 0.00 0.00 0.00 0.00 0.00 0.01 0.01 0.00 0.00 0.00 0.00 0.01 0.05 0.10 0.05 0.02 0.03 0.01 0.01 0.00 0.00 0.00 0.00 0.00 0.00 0.00 0.00 0.00 0.00 0.00 0.00 0.00 0.00 0.00 0.00 0.00 0.00 0.00 0.00 0.00 0.00 0.00 0.01 0.01 0.00 0.00 0.01 0.01 0.01
0.00 0.00 0.00 0.00 0.00 0.00 0.00 0.00 0.00 0.01 0.02 0.01 0.00 0.00 0.00 0.01 0.06 0.09 0.06 0.06 0.02 0.01 0.00 0.00 0.00 0.00 0.00 0.00 0.01 0.00 0.00 0.00 0.00 0.00 0.00 0.01 0.00 0.00 0.00 0.00 0.00 0.00 0.00 0.01 0.00 0.00 0.01 0.00 0.00 0.01 0.01 0.01 0.00 0.01
0.00 0.00 0.00 0.00 0.00 0.00 0.01 0.01 0.02 0.02 0.02 0.01 0.00 0.01 0.03 0.07 0.08 0.06 0.06 0.03 0.01 0.00 0.00 0.00 0.01 0.00 0.00 0.00 0.00 0.00 0.00 0.00 0.00 0.00 0.00 0.01 0.02 0.02 0.01 0.00 0.00 0.00 0.00 0.01 0.01 0.01 0.02 0.01 0.01 0.01 0.00 0.01 0.01 0.01
0.00 0.00 0.00 0.00 0.01 0.03 0.07 0.05 0.04 0.03 0.01 0.00 0.01 0.03 0.05 0.15 0.20 0.10 0.06 0.05 0.02 0.01 0.01 0.01 0.02 0.01 0.01 0.01 0.00 0.00 0.01 0.01 0.00 0.00 0.01 0.01 0.01 0.01 0.01 0.01 0.01 0.00 0.01 0.00 0.00 0.00 0.01 0.01 0.01 0.00 0.01 0.01 0.01 0.00
0.00 0.00 0.00 0.00 0.03 0.05 0.05 0.02 0.02 0.01 0.01 0.01 0.00 0.01 0.04 0.09 0.09 0.08 0.05 0.03 0.01 0.00 0.00 0.01 0.01 0.01 0.00 0.00 0.00 0.00 0.01 0.00 0.00 0.00 0.00 0.00 0.01 0.01 0.01 0.00 0.01 0.01 0.01 0.01 0.00 0.00 0.00 0.00 0.01 0.00 0.00 0.00 0.00 0.00
0.00 0.00 0.00 0.01 0.05 0.04 0.07 0.05 0.02 0.02 0.02 0.01 0.01 0.01 0.01 0.01 0.02 0.03 0.04 0.04 0.03 0.02 0.01 0.01 0.02 0.01 0.00 0.00 0.00 0.00 0.00 0.00 0.00 0.00 0.00 0.00 0.00 0.00 0.00 0.00 0.00 0.01 0.00 0.00 0.00 0.00 0.00 0.00 0.00 0.00 0.00 0.00 0.00 0.00
0.00 0.00 0.00 0.00 0.01 0.02 0.02 0.02 0.00 0.01 0.01 0.01 0.02 0.03 0.02 0.01 0.02 0.03 0.03 0.03 0.07 0.04 0.01 0.01 0.01 0.00 0.00 0.00 0.00 0.00 0.00 0.00 0.00 0.00 0.00 0.00 0.00 0.00 0.00 0.00 0.00 0.00 0.00 0.00 0.00 0.00 0.00 0.00 0.00 0.00 0.00 0.00 0.00 0.00

GFSWCAN_prec_precacc24_075.txt.gz
Total_Precipitation_Accumulation
0.09 0.08 0.10 0.10 0.10 0.11 0.11 0.11 0.11 0.11 0.11 0.13 0.23 0.28 0.29 0.35 0.41 0.86 1.34 0.61 0.66 0.96 0.27 0.05 0.04 0.06 0.08 0.16 0.29 0.31 0.45 0.22 0.12 0.11 0.11 0.10 0.12 0.12 0.13 0.19 0.05 0.10 0.16 0.20 0.24 0.25 0.12 0.05 0.14 0.19 0.09 0.08 0.04 0.01
0.11 0.17 0.17 0.15 0.12 0.10 0.10 0.10 0.11 0.11 0.12 0.14 0.14 0.19 0.31 0.34 0.49 0.79 1.34 0.69 0.49 0.75 0.47 0.11 0.04 0.04 0.06 0.14 0.42 0.51 0.41 0.29 0.09 0.12 0.16 0.17 0.17 0.11 0.06 0.14 0.09 0.08 0.09 0.13 0.15 0.17 0.15 0.08 0.14 0.13 0.09 0.05 0.01 0.01
0.26 0.26 0.25 0.19 0.14 0.12 0.12 0.11 0.10 0.10 0.10 0.12 0.16 0.16 0.22 0.32 0.48 0.91 0.97 0.49 0.82 1.23 0.59 0.31 0.16 0.03 0.03 0.03 0.16 0.32 0.29 0.16 0.19 0.20 0.26 0.18 0.18 0.12 0.09 0.10 0.16 0.07 0.02 0.10 0.12 0.20 0.11 0.05 0.01 0.01 0.01 0.01 0.02 0.02
0.34 0.25 0.13 0.07 0.06 0.05 0.05 0.05 0.05 0.09 0.10 0.10 0.12 0.19 0.20 0.33 0.54 0.99 0.81 0.42 0.52 0.58 0.46 0.25 0.14 0.08 0.04 0.06 0.09 0.13 0.16 0.22 0.21 0.28 0.36 0.26 0.23 0.12 0.19 0.13 0.28 0.31 0.06 0.14 0.28 0.78 0.34 0.16 0.00 0.00 0.00 0.00 0.00 0.01
0.16 0.08 0.05 0.08 0.10 0.14 0.15 0.16 0.14 0.10 0.12 0.15 0.14 0.17 0.26 0.41 0.82 1.16 0.64 0.26 0.20 0.29 0.38 0.22 0.15 0.09 0.03 0.04 0.05 0.14 0.17 0.20 0.24 0.26 0.22 0.16 0.15 0.11 0.24 0.13 0.31 0.22 0.18 0.28 0.30 0.45 0.42 0.21 0.02 0.00 0.00 0.00 0.00 0.00
0.09 0.06 0.07 0.15 0.13 0.17 0.08 0.09 0.15 0.18 0.13 0.23 0.17 0.16 0.34 0.60 1.53 1.88 1.96 1.13 0.37 0.40 0.51 0.34 0.20 0.07 0.05 0.04 0.07 0.13 0.23 0.29 0.31 0.25 0.15 0.18 0.18 0.34 0.33 0.28 0.25 0.06 0.06 0.08 0.08 0.08 0.06 0.03 0.02 0.02 0.01 0.01 0.02 0.01
0.06 0.07 0.07 0.13 0.12 0.09 0.08 0.08 0.09 0.15 0.26 0.24 0.22 0.27 0.53 1.17 1.59 0.60 0.50 0.41 0.40 0.47 0.73 0.46 0.16 0.15 0.10 0.10 0.17 0.19 0.25 0.42 0.35 0.29 0.15 0.14 0.23 0.41 0.35 0.35 0.30 0.14 0.04 0.02 0.01 0.02 0.05 0.06 0.05 0.03 0.04 0.05 0.04 0.03
0.10 0.07 0.06 0.08 0.10 0.07 0.09 0.14 0.18 0.22 0.27 0.28 0.39 0.52 0.90 0.98 0.77 0.38 0.07 0.05 0.20 0.56 0.56 0.50 0.28 0.34 0.23 0.16 0.22 0.23 0.34 0.39 0.52 0.35 0.18 0.12 0.24 0.46 0.62 0.22 0.06 0.03 0.02 0.01 0.00 0.00 0.00 0.02 0.04 0.04 0.05 0.07 0.12 0.14
0.09 0.08 0.08 0.07 0.09 0.19 0.25 0.26 0.24 0.31 0.42 0.62 0.98 1.53 1.89 1.41 1.21 0.43 0.16 0.20 0.28 0.45 0.40 0.33 0.30 0.28 0.33 0.16 0.22 0.21 0.25 0.47 0.29 0.23 0.18 0.27 0.34 0.58 0.44 0.16 0.11 0.05 0.01 0.00 0.00 0.00 0.00 0.00 0.01 0.02 0.02 0.03 0.04 0.06
0.10 0.11 0.13 0.15 0.16 0.16 0.21 0.30 0.46 0.69 0.99 1.30 1.50 1.71 1.92 1.10 0.35 0.47 0.95 1.13 0.94 0.40 0.21 0.24 0.34 0.21 0.35 0.17 0.17 0.24 0.17 0.14 0.19 0.09 0.08 0.20 0.32 0.21 0.06 0.04 0.04 0.08 0.10 0.06 0.02 0.02 0.01 0.02 0.03 0.03 0.03 0.04 0.04 0.05
0.14 0.14 0.15 0.20 0.24 0.30 0.42 0.50 0.63 0.73 0.69 0.64 0.96 1.18 1.18 0.62 0.45 0.59 0.77 0.63 0.43 0.25 0.16 0.18 0.32 0.23 0.32 0.17 0.09 0.13 0.42 0.23 0.14 0.12 0.11 0.22 0.24 0.18 0.06 0.01 0.02 0.06 0.04 0.03 0.04 0.05 0.06 0.07 0.07 0.08 0.09 0.11 0.12 0.12
0.10 0.20 0.24 0.29 0.35 0.41 0.40 0.46 0.37 0.31 0.35 0.21 0.43 0.76 0.86 0.62 0.39 0.22 0.23 0.21 0.16 0.24 0.21 0.14 0.25 0.21 0.30 0.30 0.11 0.10 0.31 0.53 0.52 0.30 0.20 0.22 0.15 0.03 0.01 0.02 0.03 0.04 0.04 0.04 0.06 0.08 0.08 0.10 0.11 0.10 0.11 0.12 0.14 0.15
0.10 0.20 0.33 0.44 0.44 0.39 0.43 0.30 0.18 0.10 0.04 0.03 0.04 0.18 0.19 0.11 0.09 0.12 0.09 0.08 0.14 0.16 0.15 0.15 0.14 0.20 0.18 0.17 0.12 0.07 0.17 0.24 0.29 0.48 0.25 0.14 0.08 0.03 0.03 0.03 0.04 0.05 0.06 0.07 0.09 0.10 0.10 0.13 0.14 0.14 0.16 0.20 0.17 0.17
0.02 0.06 0.11 0.18 0.24 0.24 0.10 0.05 0.07 0.04 0.02 0.03 0.01 0.01 0.02 0.02 0.06 0.09 0.10 0.07 0.09 0.15 0.18 0.12 0.06 0.15 0.12 0.05 0.06 0.05 0.11 0.09 0.07 0.10 0.15 0.15 0.11 0.09 0.07 0.07 0.06 0.11 0.11 0.12 0.16 0.15 0.16 0.16 0.19 0.20 0.22 0.27 0.18 0.22
0.01 0.01 0.02 0.04 0.03 0.01 0.02 0.02 0.01 0.00 0.00 0.00 0.00 0.02 0.04 0.11 0.09 0.10 0.12 0.11 0.13 0.21 0.25 0.19 0.16 0.13 0.09 0.06 0.04 0.06 0.03 0.04 0.07 0.10 0.14 0.15 0.12 0.11 0.12 0.14 0.16 0.20 0.21 0.21 0.23 0.20 0.23 0.23 0.16 0.22 0.28 0.25 0.19 0.21
0.01 0.00 0.00 0.00 0.01 0.01 0.01 0.01 0.00 0.00 0.00 0.00 0.03 0.06 0.06 0.10 0.10 0.10 0.13 0.16 0.19 0.24 0.20 0.13 0.17 0.14 0.10 0.07 0.05 0.08 0.10 0.11 0.14 0.14 0.23 0.23 0.23 0.24 0.24 0.24 0.26 0.28 0.27 0.27 0.27 0.24 0.24 0.22 0.20 0.23 0.22 0.20 0.20 0.16
0.00 0.00 0.00 0.00 0.01 0.00 0.00 0.01 0.01 0.01 0.00 0.01 0.04 0.07 0.08 0.08 0.11 0.16 0.18 0.19 0.17 0.12 0.05 0.04 0.06 0.11 0.07 0.04 0.06 0.06 0.13 0.19 0.22 0.20 0.20 0.24 0.24 0.28 0.29 0.27 0.29 0.28 0.26 0.26 0.25 0.24 0.23 0.23 0.18 0.13 0.14 0.18 0.12 0.09
0.01 0.00 0.01 0.03 0.03 0.01 0.00 0.00 0.00 0.00 0.02 0.05 0.07 0.13 0.07 0.11 0.13 0.15 0.17 0.11 0.06 0.02 0.03 0.05 0.04 0.05 0.09 0.09 0.11 0.16 0.19 0.20 0.20 0.18 0.20 0.23 0.20 0.19 0.18 0.17 0.19 0.18 0.16 0.17 0.15 0.14 0.13 0.12 0.07 0.07 0.04 0.03 0.01 0.01
0.02 0.01 0.01 0.07 0.01 0.00 0.00 0.00 0.00 0.01 0.05 0.07 0.09 0.08 0.09 0.13 0.17 0.18 0.12 0.06 0.03 0.01 0.02 0.04 0.05 0.10 0.16 0.19 0.14 0.19 0.18 0.14 0.16 0.18 0.17 0.18 0.16 0.14 0.14 0.13 0.11 0.12 0.11 0.11 0.08 0.05 0.03 0.02 0.01 0.01 0.00 0.00 0.01 0.01
0.03 0.00 0.00 0.03 0.00 0.00 0.00 0.00 0.00 0.00 0.04 0.06 0.07 0.05 0.06 0.14 0.13 0.06 0.03 0.02 0.04 0.02 0.02 0.05 0.16 0.20 0.14 0.15 0.06 0.06 0.07 0.06 0.03 0.04 0.08 0.10 0.10 0.08 0.10 0.08 0.06 0.05 0.03 0.01 0.00 0.00 0.00 0.00 0.00 0.00 0.00 0.00 0.01 0.02
0.00 0.00 0.00 0.00 0.00 0.00 0.00 0.00 0.01 0.01 0.04 0.08 0.05 0.02 0.06 0.03 0.02 0.01 0.01 0.00 0.00 0.03 0.11 0.16 0.15 0.18 0.09 0.08 0.05 0.03 0.07 0.05 0.06 0.03 0.04 0.07 0.07 0.04 0.03 0.01 0.01 0.00 0.00 0.00 0.00 0.00 0.00 0.00 0.01 0.00 0.00 0.01 0.01 0.01
0.00 0.00 0.00 0.00 0.00 0.00 0.00 0.00 0.01 0.01 0.01 0.03 0.04 0.01 0.01 0.02 0.01 0.00 0.00 0.01 0.10 0.16 0.15 0.12 0.10 0.07 0.04 0.06 0.05 0.03 0.02 0.01 0.01 0.01 0.02 0.02 0.02 0.01 0.01 0.00 0.00 0.00 0.00 0.00 0.00 0.00 0.01 0.00 0.00 0.00 0.00 0.01 0.00 0.00
0.00 0.00 0.00 0.00 0.00 0.00 0.03 0.03 0.02 0.02 0.01 0.01 0.00 0.00 0.00 0.00 0.00 0.00 0.01 0.06 0.20 0.19 0.09 0.04 0.04 0.02 0.02 0.04 0.01 0.01 0.00 0.00 0.00 0.00 0.00 0.00 0.00 0.00 0.00 0.00 0.00 0.00 0.00 0.00 0.00 0.00 0.01 0.00 0.00 0.00 0.00 0.00 0.01 0.01
0.00 0.00 0.00 0.00 0.00 0.01 0.00 0.00 0.00 0.00 0.00 0.00 0.00 0.01 0.01 0.00 0.00 0.00 0.03 0.07 0.14 0.11 0.04 0.03 0.01 0.00 0.01 0.00 0.00 0.00 0.00 0.00 0.00 0.00 0.00 0.00 0.00 0.00 0.00 0.00 0.00 0.00 0.00 0.00 0.00 0.00 0.00 0.01 0.00 0.01 0.00 0.00 0.01 0.00
0.00 0.00 0.00 0.00 0.00 0.00 0.00 0.00 0.00 0.00 0.00 0.00 0.00 0.01 0.00 0.00 0.00 0.00 0.01 0.07 0.08 0.07 0.04 0.02 0.02 0.01 0.01 0.01 0.00 0.00 0.00 0.00 0.00 0.00 0.00 0.00 0.00 0.00 0.00 0.00 0.00 0.00 0.00 0.01 0.01 0.00 0.00 0.00 0.00 0.00 0.00 0.00 0.00 0.00
0.00 0.01 0.00 0.01 0.00 0.00 0.00 0.00 0.00 0.00 0.00 0.00 0.00 0.00 0.00 0.00 0.00 0.02 0.03 0.04 0.04 0.04 0.04 0.03 0.01 0.00 0.00 0.00 0.00 0.00 0.00 0.00 0.00 0.00 0.00 0.00 0.00 0.00 0.00 0.00 0.00 0.02 0.00 0.00 0.01 0.01 0.01 0.01 0.00 0.00 0.00 0.00 0.00 0.00
0.01 0.01 0.00 0.00 0.00 0.00 0.00 0.00 0.00 0.00 0.01 0.01 0.00 0.00 0.00 0.00 0.01 0.05 0.11 0.05 0.03 0.04 0.02 0.01 0.00 0.00 0.00 0.00 0.00 0.00 0.00 0.00 0.00 0.00 0.00 0.00 0.00 0.00 0.00 0.00 0.00 0.01 0.00 0.00 0.00 0.00 0.00 0.01 0.01 0.00 0.00 0.01 0.01 0.01
0.00 0.00 0.00 0.00 0.00 0.00 0.00 0.00 0.00 0.01 0.02 0.01 0.00 0.00 0.00 0.01 0.06 0.09 0.08 0.07 0.02 0.01 0.00 0.00 0.00 0.00 0.00 0.00 0.00 0.00 0.00 0.00 0.00 0.00 0.00 0.01 0.00 0.00 0.00 0.00 0.00 0.00 0.00 0.01 0.00 0.00 0.01 0.00 0.00 0.01 0.01 0.01 0.00 0.01
0.00 0.00 0.00 0.00 0.00 0.00 0.01 0.02 0.02 0.02 0.02 0.01 0.00 0.01 0.03 0.07 0.09 0.07 0.06 0.02 0.01 0.00 0.00 0.00 0.00 0.00 0.00 0.00 0.00 0.00 0.00 0.00 0.00 0.00 0.00 0.01 0.02 0.02 0.01 0.00 0.00 0.00 0.00 0.01 0.01 0.01 0.02 0.01 0.01 0.01 0.00 0.01 0.01 0.01
0.00 0.00 0.00 0.00 0.01 0.03 0.08 0.05 0.03 0.03 0.01 0.00 0.01 0.04 0.06 0.16 0.21 0.10 0.06 0.04 0.02 0.01 0.01 0.01 0.01 0.01 0.00 0.00 0.00 0.00 0.01 0.01 0.00 0.00 0.01 0.01 0.01 0.01 0.01 0.01 0.01 0.00 0.01 0.00 0.00 0.00 0.01 0.01 0.01 0.00 0.01 0.01 0.01 0.01
0.00 0.00 0.00 0.00 0.04 0.06 0.07 0.03 0.02 0.02 0.01 0.01 0.00 0.01 0.05 0.10 0.10 0.10 0.07 0.03 0.01 0.00 0.01 0.01 0.01 0.01 0.00 0.01 0.00 0.00 0.01 0.00 0.00 0.00 0.00 0.00 0.01 0.01 0.01 0.00 0.01 0.01 0.01 0.01 0.00 0.00 0.00 0.00 0.01 0.00 0.00 0.00 0.00 0.00
0.00 0.00 0.00 0.01 0.05 0.05 0.08 0.04 0.01 0.02 0.02 0.01 0.01 0.01 0.01 0.01 0.02 0.03 0.04 0.05 0.04 0.02 0.01 0.01 0.01 0.01 0.00 0.00 0.00 0.00 0.00 0.00 0.00 0.00 0.00 0.00 0.00 0.00 0.00 0.00 0.00 0.00 0.00 0.00 0.00 0.00 0.00 0.00 0.00 0.00 0.00 0.00 0.00 0.00
0.00 0.00 0.00 0.00 0.01 0.02 0.02 0.02 0.01 0.01 0.01 0.02 0.03 0.03 0.02 0.01 0.02 0.03 0.03 0.03 0.07 0.03 0.02 0.01 0.00 0.00 0.00 0.00 0.00 0.00 0.00 0.00 0.00 0.00 0.00 0.00 0.00 0.00 0.00 0.00 0.00 0.00 0.00 0.00 0.00 0.00 0.00 0.00 0.00 0.00 0.00 0.00 0.00 0.00